PEQUAWKET POND DAM: From 05/23/2018 00:00 to 07/24/2018 00:00

Date LAKE ELEVATION [FT] PRECIPITATION INCREMENT [IN] PRECIPITATION DAILY TOTAL [IN] AIR TEMPERATURE [F] RESERVOIR RELEASE [CFS]
07/22/2018 17:00 -- -- -- -- 10.0
07/22/2018 16:00 457.14 0.04 -- 64.2 10.0
07/22/2018 15:00 457.14 0.07 -- 63.3 9.3
07/22/2018 14:00 457.13 0.03 -- 62.9 9.0
07/22/2018 13:00 457.13 0.00 -- 63.1 9.0
07/22/2018 12:00 457.13 0.01 -- 64.7 9.0
07/22/2018 11:00 457.12 0.00 -- 65.5 9.0
07/22/2018 10:00 457.13 0.00 -- 64.9 9.0
07/22/2018 09:00 457.13 0.00 -- 61.5 9.0
07/22/2018 08:00 457.13 0.00 -- 58.2 9.0
07/22/2018 07:00 457.13 0.00 -- 56.1 9.0
07/22/2018 06:00 457.13 0.00 -- 55.0 9.0
07/22/2018 05:00 457.14 0.00 -- 55.0 9.0
07/22/2018 04:00 457.14 0.00 -- 56.2 9.3
07/22/2018 03:00 457.14 0.00 -- 57.4 10.0
07/22/2018 02:00 457.14 0.00 -- 58.6 10.0
07/22/2018 01:00 457.14 0.00 -- 59.2 10.0
07/22/2018 00:00 457.14 0.00 -- 61.7 10.0
07/21/2018 23:00 457.14 0.00 -- 64.3 10.0
07/21/2018 22:00 457.14 0.00 -- 68.9 10.0
07/21/2018 21:00 457.15 0.00 -- 74.4 10.0
07/21/2018 20:00 457.15 0.00 -- 78.3 10.3
07/21/2018 19:00 457.15 0.00 -- 80.9 10.3
07/21/2018 18:00 457.15 0.00 -- 83.0 10.8
07/21/2018 17:00 457.16 0.00 -- 84.4 10.5
07/21/2018 16:00 457.15 0.00 -- 82.8 10.3
07/21/2018 15:00 457.15 0.00 -- 82.3 10.0
07/21/2018 14:00 457.14 0.00 -- 79.2 10.0
07/21/2018 13:00 457.14 0.00 -- 78.3 10.0
07/21/2018 12:00 457.14 0.00 -- 76.2 10.0
07/21/2018 11:00 457.15 0.00 -- 73.8 10.0
07/21/2018 10:00 457.14 0.00 -- 69.4 10.0
07/21/2018 09:00 457.14 0.00 -- 62.1 10.0
07/21/2018 08:00 457.14 0.00 -- 57.0 10.0
07/21/2018 07:00 457.14 0.00 -- 55.0 10.0
07/21/2018 06:00 457.15 0.00 -- 56.5 10.0
07/21/2018 05:00 457.15 0.00 -- 57.1 10.0
07/21/2018 04:00 457.15 0.00 -- 58.0 10.0
07/21/2018 03:00 457.15 0.00 -- 59.7 10.0
07/21/2018 02:00 457.15 0.00 -- 60.3 10.0
07/21/2018 01:00 457.15 0.00 -- 62.6 10.0
07/21/2018 00:00 457.15 0.00 0.00 65.8 10.0
07/20/2018 23:00 457.15 0.00 -- 70.6 10.3
07/20/2018 22:00 457.15 0.00 -- 74.5 10.0
07/20/2018 21:00 457.15 0.00 -- 77.5 10.5
07/20/2018 20:00 457.16 0.00 -- 81.2 10.8
07/20/2018 19:00 457.16 0.00 -- 84.9 11.0
07/20/2018 18:00 457.16 0.00 -- 89.6 10.8
07/20/2018 17:00 457.16 0.00 -- 87.7 10.8
07/20/2018 16:00 457.15 0.00 -- 89.4 10.3
07/20/2018 15:00 457.15 0.00 -- 88.4 11.0
07/20/2018 14:00 457.15 0.00 -- 85.0 10.5
07/20/2018 13:00 457.15 0.00 -- 80.9 10.3
07/20/2018 12:00 457.15 0.00 -- 82.1 10.0
07/20/2018 11:00 457.15 0.00 -- 74.8 10.0
07/20/2018 10:00 457.14 0.00 -- 69.7 10.0
07/20/2018 09:00 457.14 0.00 -- 65.2 10.0
07/20/2018 08:00 457.15 0.00 -- 57.5 10.0
07/20/2018 07:00 457.15 0.00 -- 55.5 10.0
07/20/2018 06:00 457.15 0.00 -- 56.0 10.0
07/20/2018 05:00 457.15 0.00 -- 56.5 10.0
07/20/2018 04:00 457.15 0.00 -- 58.3 10.0
07/20/2018 03:00 457.15 0.00 -- 58.3 10.0
07/20/2018 02:00 457.15 0.00 -- 60.5 10.0
07/20/2018 01:00 457.15 0.00 -- 60.7 10.0
07/20/2018 00:00 457.15 0.00 0.00 63.5 10.0
07/19/2018 23:00 457.15 0.00 -- 65.4 10.0
07/19/2018 22:00 457.15 0.00 -- 69.2 10.0
07/19/2018 21:00 457.15 0.00 -- 77.2 10.0
07/19/2018 20:00 457.15 0.00 -- 79.5 10.3
07/19/2018 19:00 457.15 0.00 -- 80.3 10.0
07/19/2018 18:00 457.16 0.00 -- 82.9 10.3
07/19/2018 17:00 457.15 0.00 -- 83.2 10.0
07/19/2018 16:00 457.15 0.00 -- 82.0 9.3
07/19/2018 15:00 457.14 0.00 -- 79.7 9.8
07/19/2018 14:00 457.14 0.00 -- 81.2 9.5
07/19/2018 13:00 457.13 0.00 -- 76.9 9.0
07/19/2018 12:00 457.13 0.00 -- 75.5 9.0
07/19/2018 11:00 457.13 0.00 -- 73.0 9.0
07/19/2018 10:00 457.13 0.00 -- 65.4 9.0
07/19/2018 09:00 457.13 0.00 -- 60.3 9.0
07/19/2018 08:00 457.13 0.00 -- 55.3 9.0
07/19/2018 07:00 457.13 0.00 -- 51.5 9.0
07/19/2018 06:00 457.13 0.00 -- 50.7 9.0
07/19/2018 05:00 457.13 0.00 -- 50.1 9.0
07/19/2018 04:00 457.12 0.00 -- 54.0 9.0
07/19/2018 03:00 457.13 0.00 -- 53.3 9.0
07/19/2018 02:00 457.13 0.00 -- 53.9 9.0
07/19/2018 01:00 457.13 0.00 -- 56.5 9.0
07/19/2018 00:00 457.13 0.00 0.00 57.9 9.0
07/18/2018 23:00 457.13 0.00 -- 63.2 9.0
07/18/2018 22:00 457.13 0.00 -- 66.4 9.0
07/18/2018 21:00 457.13 0.00 -- 70.3 9.0
07/18/2018 20:00 457.13 0.00 -- 73.6 9.3
07/18/2018 19:00 457.13 0.00 -- 75.5 9.3
07/18/2018 18:00 457.13 0.00 -- 77.9 9.3
07/18/2018 17:00 457.13 0.00 -- 79.6 9.3
07/18/2018 16:00 457.14 0.00 -- 79.5 9.8
07/18/2018 15:00 457.14 0.00 -- 77.4 9.5
07/18/2018 14:00 457.15 0.00 -- 76.5 9.8
07/18/2018 13:00 457.15 0.00 -- 75.2 10.3
07/18/2018 12:00 457.15 0.00 -- 73.8 10.0
07/18/2018 11:00 457.15 0.00 -- 72.9 10.0
07/18/2018 10:00 457.13 0.00 -- 69.8 9.5
07/18/2018 09:00 457.14 0.00 -- 67.1 9.3
07/18/2018 08:00 457.14 0.00 -- 63.1 9.0
07/18/2018 07:00 457.14 0.00 -- 61.7 9.3
07/18/2018 06:00 457.14 0.00 -- 63.8 9.5
07/18/2018 05:00 457.14 0.00 -- 64.7 9.5
07/18/2018 04:00 457.14 0.00 -- 65.3 9.8
07/18/2018 03:00 457.14 0.00 -- 66.1 10.0
07/18/2018 02:00 457.14 0.00 -- 66.7 10.0
07/18/2018 01:00 457.14 0.00 -- 68.1 10.0
07/18/2018 00:00 457.14 0.00 0.00 69.4 10.0
07/17/2018 23:00 457.14 0.00 -- 70.5 10.0
07/17/2018 22:00 457.14 0.00 -- 72.3 10.0
07/17/2018 21:00 457.14 0.00 -- 72.0 10.0
07/17/2018 20:00 457.14 0.00 -- 73.2 10.0
07/17/2018 19:00 457.14 0.00 -- 74.9 10.0
07/17/2018 18:00 457.14 0.00 -- 74.7 10.0
07/17/2018 17:00 457.14 0.01 -- 75.0 10.0
07/17/2018 16:00 457.14 0.04 -- 73.7 10.0
07/17/2018 15:00 457.14 0.00 -- 73.6 9.3
07/17/2018 14:00 457.14 0.09 -- 73.0 9.0
07/17/2018 13:00 457.13 0.09 -- 71.8 8.5
07/17/2018 12:00 457.12 0.04 -- 71.7 8.0
07/17/2018 11:00 457.12 0.01 -- 70.7 8.0
07/17/2018 10:00 457.11 0.00 -- 70.8 8.0
07/17/2018 09:00 457.11 0.00 -- 70.9 8.0
07/17/2018 08:00 457.11 0.00 -- 71.0 8.0
07/17/2018 07:00 457.11 0.00 -- 71.2 8.0
07/17/2018 06:00 457.11 0.00 -- 71.3 8.0
07/17/2018 05:00 457.11 0.00 -- 71.5 8.0
07/17/2018 04:00 457.11 0.00 -- 71.6 8.0
07/17/2018 03:00 457.11 0.00 -- 71.8 8.0
07/17/2018 02:00 457.11 0.00 -- 71.9 8.0
07/17/2018 01:00 457.11 0.00 -- 72.0 8.0
07/17/2018 00:00 457.11 0.00 0.28 72.2 8.0
07/16/2018 23:00 457.11 0.00 -- 72.9 8.0
07/16/2018 22:00 457.11 0.00 -- 76.2 8.0
07/16/2018 21:00 457.12 0.00 -- 81.4 7.8
07/16/2018 20:00 457.12 0.00 -- 84.3 8.0
07/16/2018 19:00 457.12 0.00 -- 88.6 8.0
07/16/2018 18:00 457.12 0.00 -- 89.9 8.0
07/16/2018 17:00 457.12 0.00 -- 91.1 8.0
07/16/2018 16:00 457.12 0.00 -- 91.8 8.0
07/16/2018 15:00 457.12 0.00 -- 90.0 8.3
07/16/2018 14:00 457.12 0.00 -- 89.9 8.0
07/16/2018 13:00 457.11 0.00 -- 85.0 8.0
07/16/2018 12:00 457.11 0.00 -- 81.8 8.0
07/16/2018 11:00 457.11 0.00 -- 78.3 8.0
07/16/2018 10:00 457.11 0.00 -- 73.0 7.3
07/16/2018 09:00 457.11 0.00 -- 67.5 7.5
07/16/2018 08:00 457.11 0.00 -- 60.9 8.0
07/16/2018 07:00 457.11 0.00 -- 59.5 8.0
07/16/2018 06:00 457.11 0.00 -- 61.0 8.0
07/16/2018 05:00 457.11 0.00 -- 62.4 7.8
07/16/2018 04:00 457.11 0.00 -- 64.0 8.0
07/16/2018 03:00 457.11 0.00 -- 66.1 7.8
07/16/2018 02:00 457.11 0.00 -- 68.7 8.0
07/16/2018 01:00 457.11 0.00 -- 69.4 8.0
07/16/2018 00:00 457.11 0.00 0.00 71.6 8.0
07/15/2018 23:00 457.11 0.00 -- 72.8 8.0
07/15/2018 22:00 457.11 0.00 -- 76.1 8.0
07/15/2018 21:00 457.11 0.00 -- 78.8 8.0
07/15/2018 20:00 457.12 0.00 -- 81.9 8.0
07/15/2018 19:00 457.12 0.00 -- 84.1 8.0
07/15/2018 18:00 457.10 0.00 -- 85.8 7.0
07/15/2018 17:00 457.10 0.00 -- 81.9 7.3
07/15/2018 16:00 457.10 0.00 -- 82.2 7.0
07/15/2018 15:00 457.11 0.00 -- 84.2 7.0
07/15/2018 14:00 457.10 0.00 -- 80.7 7.0
07/15/2018 13:00 457.10 0.00 -- 81.8 7.0
07/15/2018 12:00 457.10 0.00 -- 75.8 7.0
07/15/2018 11:00 457.10 0.00 -- 70.9 7.0
07/15/2018 10:00 457.10 0.00 -- 68.5 7.0
07/15/2018 09:00 457.10 0.00 -- 64.2 7.0
07/15/2018 08:00 457.10 0.00 -- 62.4 7.0
07/15/2018 07:00 457.10 0.00 -- 61.0 7.0
07/15/2018 06:00 457.10 0.00 -- 61.6 7.0
07/15/2018 05:00 457.10 0.00 -- 61.8 7.0
07/15/2018 04:00 457.10 0.00 -- 62.5 7.0
07/15/2018 03:00 457.10 0.00 -- 64.9 7.0
07/15/2018 02:00 457.10 0.00 -- 65.3 7.0
07/15/2018 01:00 457.10 0.00 -- 65.5 7.0
07/15/2018 00:00 457.10 0.00 0.00 65.7 7.0
07/14/2018 23:00 457.10 0.00 -- 66.3 7.0
07/14/2018 22:00 457.10 0.00 -- 67.0 7.0
07/14/2018 21:00 457.10 0.00 -- 67.7 7.0
07/14/2018 20:00 457.10 0.00 -- 68.7 7.0
07/14/2018 19:00 457.10 0.00 -- 67.5 7.0
07/14/2018 18:00 457.10 0.00 -- 68.7 7.0
07/14/2018 17:00 457.10 0.00 -- 69.6 7.0
07/14/2018 16:00 457.10 0.00 -- 69.3 7.0
07/14/2018 15:00 457.10 0.00 -- 68.2 7.0
07/14/2018 14:00 457.10 0.00 -- 68.0 7.0
07/14/2018 13:00 457.10 0.00 -- 66.5 7.0
07/14/2018 12:00 457.10 0.00 -- 65.0 7.0
07/14/2018 11:00 457.10 0.00 -- 63.3 7.0
07/14/2018 10:00 457.10 0.00 -- 61.0 7.0
07/14/2018 09:00 457.10 0.00 -- 59.2 7.0
07/14/2018 08:00 457.10 0.00 -- 57.4 7.0
07/14/2018 07:00 457.10 0.00 -- 54.3 7.0
07/14/2018 06:00 457.10 0.00 -- 55.5 7.0
07/14/2018 05:00 457.10 0.00 -- 55.9 7.0
07/14/2018 04:00 457.10 0.00 -- 56.4 7.0
07/14/2018 03:00 457.10 0.00 -- 58.0 7.0
07/14/2018 02:00 457.10 0.00 -- 57.9 7.0
07/14/2018 01:00 457.10 0.00 -- 59.7 7.0
07/14/2018 00:00 457.11 0.00 0.00 63.0 7.0
07/13/2018 23:00 457.11 0.00 -- 66.4 7.0
07/13/2018 22:00 457.11 0.00 -- 69.6 7.0
07/13/2018 21:00 457.11 0.00 -- 72.5 7.0
07/13/2018 20:00 457.11 0.00 -- 75.3 7.0
07/13/2018 19:00 457.11 0.00 -- 78.9 7.3
07/13/2018 18:00 457.11 0.00 -- 80.5 7.0
07/13/2018 17:00 457.11 0.00 -- 79.6 7.0
07/13/2018 16:00 457.11 0.00 -- 79.4 7.3
07/13/2018 15:00 457.11 0.00 -- 81.8 7.0
07/13/2018 14:00 457.10 0.00 -- 81.1 7.3
07/13/2018 13:00 457.10 0.00 -- 79.8 7.3
07/13/2018 12:00 457.10 0.00 -- 75.8 7.0
07/13/2018 11:00 457.11 0.00 -- 73.7 7.0
07/13/2018 10:00 457.11 0.00 -- 69.1 7.0
07/13/2018 09:00 457.11 0.00 -- 63.5 7.0
07/13/2018 08:00 457.10 0.00 -- 58.3 7.0
07/13/2018 07:00 457.11 0.00 -- 56.2 7.0
07/13/2018 06:00 457.11 0.00 -- 57.2 7.0
07/13/2018 05:00 457.11 0.00 -- 57.6 7.8
07/13/2018 04:00 457.11 0.00 -- 59.0 8.0
07/13/2018 03:00 457.11 0.00 -- 60.0 8.0
07/13/2018 02:00 457.11 0.00 -- 61.1 8.0
07/13/2018 01:00 457.11 0.00 -- 62.2 8.0
07/13/2018 00:00 457.11 0.00 0.00 65.3 8.0
07/12/2018 23:00 457.11 0.00 -- 67.0 8.0
07/12/2018 22:00 457.11 0.00 -- 70.1 8.0
07/12/2018 21:00 457.12 0.00 -- 74.0 8.0
07/12/2018 20:00 457.12 0.00 -- 77.2 8.0
07/12/2018 19:00 457.12 0.00 -- 77.6 8.0
07/12/2018 18:00 457.13 0.00 -- 79.1 8.3
07/12/2018 17:00 457.12 0.00 -- 78.2 8.0
07/12/2018 16:00 457.12 0.00 -- 78.0 8.0
07/12/2018 15:00 457.12 0.00 -- 78.0 8.0
07/12/2018 14:00 457.12 0.00 -- 77.0 8.0
07/12/2018 13:00 457.12 0.00 -- 76.6 8.0
07/12/2018 12:00 457.12 0.00 -- 75.2 8.0
07/12/2018 11:00 457.12 0.00 -- 76.6 8.0
07/12/2018 10:00 457.12 0.00 -- 67.5 8.0
07/12/2018 09:00 457.12 0.00 -- 63.9 8.0
07/12/2018 08:00 457.12 0.00 -- 57.8 8.0
07/12/2018 07:00 457.12 0.00 -- 53.8 8.0
07/12/2018 06:00 457.12 0.00 -- 55.9 8.0
07/12/2018 05:00 457.12 0.00 -- 54.4 8.0
07/12/2018 04:00 457.12 0.00 -- 54.4 8.0
07/12/2018 03:00 457.12 0.00 -- 55.9 8.0
07/12/2018 02:00 457.12 0.00 -- 57.5 8.0
07/12/2018 01:00 457.12 0.00 -- 59.7 8.5
07/12/2018 00:00 457.12 0.00 0.00 62.8 8.8
07/11/2018 23:00 457.13 0.00 -- 65.1 9.0
07/11/2018 22:00 457.13 0.00 -- 69.7 9.0
07/11/2018 21:00 457.13 0.00 -- 73.5 9.0
07/11/2018 20:00 457.13 0.00 -- 76.8 9.0
07/11/2018 19:00 457.13 0.00 -- 80.0 9.0
07/11/2018 18:00 457.13 0.00 -- 78.7 9.0
07/11/2018 17:00 457.13 0.00 -- 81.0 9.0
07/11/2018 16:00 457.13 0.00 -- 81.3 9.0
07/11/2018 15:00 457.13 0.00 -- 81.2 9.0
07/11/2018 14:00 457.13 0.00 -- 78.5 9.0
07/11/2018 13:00 457.13 0.00 -- 74.2 9.0
07/11/2018 12:00 457.13 0.00 -- 75.5 9.0
07/11/2018 11:00 457.13 0.00 -- 69.8 9.0
07/11/2018 10:00 457.13 0.00 -- 67.7 9.0
07/11/2018 09:00 457.13 0.00 -- 64.3 9.0
07/11/2018 08:00 457.13 0.00 -- 63.0 9.0
07/11/2018 07:00 457.13 0.00 -- 62.1 9.0
07/11/2018 06:00 457.13 0.07 -- 63.6 9.0
07/11/2018 05:00 457.13 0.00 -- 68.4 9.0
07/11/2018 04:00 457.13 0.00 -- 69.0 9.0
07/11/2018 03:00 457.13 0.00 -- 70.5 9.0
07/11/2018 02:00 457.13 0.00 -- 71.6 9.0
07/11/2018 01:00 457.13 0.00 -- 72.0 9.0
07/11/2018 00:00 457.13 0.00 0.07 71.4 9.0
07/10/2018 23:00 457.13 0.00 -- 72.7 9.0
07/10/2018 22:00 457.14 0.00 -- 75.1 9.3
07/10/2018 21:00 457.14 0.00 -- 78.4 10.0
07/10/2018 20:00 457.14 0.00 -- 80.7 10.0
07/10/2018 19:00 457.14 0.00 -- 81.6 9.8
07/10/2018 18:00 457.15 0.00 -- 85.9 9.8
07/10/2018 17:00 457.14 0.00 -- 88.4 10.0
07/10/2018 16:00 457.14 0.00 -- 87.1 10.0
07/10/2018 15:00 457.14 0.00 -- 89.4 9.8
07/10/2018 14:00 457.15 0.00 -- 87.9 10.0
07/10/2018 13:00 457.15 0.00 -- 87.0 10.0
07/10/2018 12:00 457.14 0.00 -- 85.3 10.0
07/10/2018 11:00 457.14 0.00 -- 81.4 10.0
07/10/2018 10:00 457.14 0.00 -- 76.9 10.0
07/10/2018 09:00 457.14 0.00 -- 68.6 10.0
07/10/2018 08:00 457.14 0.00 -- 63.7 10.0
07/10/2018 07:00 457.14 0.00 -- 62.3 10.0
07/10/2018 06:00 457.14 0.00 -- 61.9 10.0
07/10/2018 05:00 457.14 0.00 -- 62.8 10.0
07/10/2018 04:00 457.14 0.00 -- 62.7 10.0
07/10/2018 03:00 457.14 0.00 -- 63.9 10.0
07/10/2018 02:00 457.14 0.00 -- 65.1 10.0
07/10/2018 01:00 457.14 0.00 -- 67.7 10.0
07/10/2018 00:00 457.14 0.00 0.00 70.9 10.0
07/09/2018 23:00 457.15 0.00 -- 76.2 10.0
07/09/2018 22:00 457.15 0.00 -- 79.3 10.8
07/09/2018 21:00 457.15 0.00 -- 84.6 10.0
07/09/2018 20:00 457.15 0.00 -- 87.2 11.0
07/09/2018 19:00 457.15 0.00 -- 89.5 11.3
07/09/2018 18:00 457.17 0.00 -- 89.9 11.0
07/09/2018 17:00 457.16 0.00 -- 90.4 11.3
07/09/2018 16:00 457.17 0.00 -- 91.6 11.0
07/09/2018 15:00 457.15 0.00 -- 90.1 10.5
07/09/2018 14:00 457.15 0.00 -- 88.1 10.0
07/09/2018 13:00 457.15 0.00 -- 85.1 10.8
07/09/2018 12:00 457.15 0.00 -- 80.1 10.0
07/09/2018 11:00 457.15 0.00 -- 77.0 10.0
07/09/2018 10:00 457.15 0.00 -- 74.0 10.0
07/09/2018 09:00 457.15 0.00 -- 66.0 10.0
07/09/2018 08:00 457.15 0.00 -- 57.6 10.0
07/09/2018 07:00 457.15 0.00 -- 56.5 10.0
07/09/2018 06:00 457.15 0.00 -- 56.6 10.0
07/09/2018 05:00 457.15 0.00 -- 59.8 10.5
07/09/2018 04:00 457.15 0.00 -- 59.4 10.8
07/09/2018 03:00 457.16 0.00 -- 60.9 11.0
07/09/2018 02:00 457.15 0.00 -- 62.8 10.5
07/09/2018 01:00 457.16 0.00 -- 64.1 11.0
07/09/2018 00:00 457.15 0.00 0.00 65.8 11.0
07/08/2018 23:00 457.16 0.00 -- 68.6 11.0
07/08/2018 22:00 457.16 0.00 -- 73.4 11.0
07/08/2018 21:00 457.16 0.00 -- 80.1 11.5
07/08/2018 20:00 457.16 0.00 -- 82.8 11.5
07/08/2018 19:00 457.17 0.00 -- 84.0 11.8
07/08/2018 18:00 457.17 0.00 -- 86.4 11.5
07/08/2018 17:00 457.16 0.00 -- 86.0 11.8
07/08/2018 16:00 457.16 0.00 -- 86.4 11.0
07/08/2018 15:00 457.17 0.00 -- 84.9 11.5
07/08/2018 14:00 457.16 0.00 -- 81.4 11.0
07/08/2018 13:00 457.17 0.00 -- 81.6 11.3
07/08/2018 12:00 457.16 0.00 -- 80.7 11.0
07/08/2018 11:00 457.16 0.00 -- 77.0 11.0
07/08/2018 10:00 457.16 0.00 -- 70.5 11.0
07/08/2018 09:00 457.16 0.00 -- 62.9 11.0
07/08/2018 08:00 457.16 0.00 -- 56.6 11.0
07/08/2018 07:00 457.16 0.00 -- 54.0 11.0
07/08/2018 06:00 457.16 0.00 -- 52.8 11.0
07/08/2018 05:00 457.16 0.00 -- 55.3 11.0
07/08/2018 04:00 457.16 0.00 -- 55.5 11.0
07/08/2018 03:00 457.17 0.00 -- 56.7 12.0
07/08/2018 02:00 457.17 0.00 -- 58.6 11.8
07/08/2018 01:00 457.17 0.00 -- 59.6 12.0
07/08/2018 00:00 457.17 0.00 0.00 60.7 12.0
07/07/2018 23:00 457.17 0.00 -- 64.1 12.0
07/07/2018 22:00 457.17 0.00 -- 68.2 12.0
07/07/2018 21:00 457.17 0.00 -- 73.4 12.0
07/07/2018 20:00 457.17 0.00 -- 75.5 12.0
07/07/2018 19:00 457.17 0.00 -- 77.3 12.5
07/07/2018 18:00 457.17 0.00 -- 79.5 12.0
07/07/2018 17:00 457.18 0.00 -- 79.2 12.5
07/07/2018 16:00 457.17 0.00 -- 78.3 12.0
07/07/2018 15:00 457.17 0.00 -- 77.2 12.3
07/07/2018 14:00 457.18 0.00 -- 75.8 12.5
07/07/2018 13:00 457.18 0.00 -- 72.5 13.0
07/07/2018 12:00 457.18 0.00 -- 72.9 12.5
07/07/2018 11:00 457.17 0.00 -- 72.0 12.0
07/07/2018 10:00 457.18 0.00 -- 68.2 12.5
07/07/2018 09:00 457.18 0.00 -- 64.4 12.5
07/07/2018 08:00 457.18 0.00 -- 54.8 12.5
07/07/2018 07:00 457.18 0.00 -- 52.0 12.8
07/07/2018 06:00 457.18 0.00 -- 51.7 13.0
07/07/2018 05:00 457.18 0.00 -- 52.7 13.0
07/07/2018 04:00 457.18 0.00 -- 53.6 13.0
07/07/2018 03:00 457.18 0.00 -- 56.9 13.0
07/07/2018 02:00 457.19 0.00 -- 60.1 13.0
07/07/2018 01:00 457.19 0.00 -- 59.4 13.0
07/07/2018 00:00 457.18 0.00 0.00 62.9 13.5
07/06/2018 23:00 457.19 0.00 -- 64.1 14.0
07/06/2018 22:00 457.21 0.00 -- 64.8 15.3
07/06/2018 21:00 457.21 0.00 -- 67.7 15.3
07/06/2018 20:00 457.23 0.00 -- 70.9 15.5
07/06/2018 19:00 457.20 0.00 -- 72.3 15.5
07/06/2018 18:00 457.21 0.00 -- 77.7 15.8
07/06/2018 17:00 457.21 0.00 -- 80.4 15.5
07/06/2018 16:00 457.22 0.00 -- 81.7 16.3
07/06/2018 15:00 457.22 0.00 -- 84.8 15.8
07/06/2018 14:00 457.22 0.01 -- 83.8 16.0
07/06/2018 13:00 457.22 0.00 -- 79.4 16.0
07/06/2018 12:00 457.22 0.00 -- 78.0 16.0
07/06/2018 11:00 457.22 0.03 -- 75.2 16.5
07/06/2018 10:00 457.23 0.01 -- 75.0 17.0
07/06/2018 09:00 457.22 0.05 -- 75.3 15.8
07/06/2018 08:00 457.22 0.00 -- 77.2 16.0
07/06/2018 07:00 457.21 0.00 -- 78.0 15.8
07/06/2018 06:00 457.22 0.00 -- 77.8 16.0
07/06/2018 05:00 457.22 0.00 -- 78.6 16.3
07/06/2018 04:00 457.22 0.00 -- 79.2 16.8
07/06/2018 03:00 457.23 0.00 -- 80.3 16.3
07/06/2018 02:00 457.23 0.00 -- 80.8 16.5
07/06/2018 01:00 457.24 0.00 -- 81.6 16.8
07/06/2018 00:00 457.23 0.00 0.10 82.3 16.8
07/05/2018 23:00 457.23 0.00 -- 82.9 17.0
07/05/2018 22:00 457.23 0.00 -- 84.3 17.0
07/05/2018 21:00 457.23 0.00 -- 87.3 16.8
07/05/2018 20:00 457.23 0.00 -- 90.2 17.8
07/05/2018 19:00 457.24 0.00 -- 92.6 17.5
07/05/2018 18:00 457.25 0.00 -- 94.8 17.5
07/05/2018 17:00 457.24 0.00 -- 96.4 18.3
07/05/2018 16:00 457.24 0.00 -- 93.7 18.0
07/05/2018 15:00 457.25 0.00 -- 93.9 18.0
07/05/2018 14:00 457.24 0.00 -- 92.0 18.3
07/05/2018 13:00 457.23 0.00 -- 92.0 17.5
07/05/2018 12:00 457.25 0.00 -- 90.4 18.0
07/05/2018 11:00 457.25 0.00 -- 86.9 18.0
07/05/2018 10:00 457.24 0.00 -- 79.5 18.0
07/05/2018 09:00 457.24 0.00 -- 74.7 18.0
07/05/2018 08:00 457.24 0.00 -- 68.2 18.0
07/05/2018 07:00 457.24 0.00 -- 67.0 18.0
07/05/2018 06:00 457.25 0.00 -- 68.5 18.0
07/05/2018 05:00 457.25 0.00 -- 67.1 18.0
07/05/2018 04:00 457.24 0.00 -- 69.1 18.0
07/05/2018 03:00 457.25 0.00 -- 69.0 18.0
07/05/2018 02:00 457.25 0.00 -- 70.8 18.3
07/05/2018 01:00 457.25 0.00 -- 73.6 18.3
07/05/2018 00:00 457.25 0.00 0.00 74.4 18.5
07/04/2018 23:00 457.25 0.00 -- 75.8 19.0
07/04/2018 22:00 457.25 0.00 -- 79.8 19.0
07/04/2018 21:00 457.25 0.00 -- 84.5 19.0
07/04/2018 20:00 457.26 0.00 -- 90.5 19.3
07/04/2018 19:00 457.26 0.00 -- 91.8 19.8
07/04/2018 18:00 457.26 0.00 -- 94.7 19.8
07/04/2018 17:00 457.26 0.00 -- 96.8 19.8
07/04/2018 16:00 457.26 0.00 -- 95.1 19.5
07/04/2018 15:00 457.26 0.00 -- 95.2 19.8
07/04/2018 14:00 457.26 0.00 -- 92.9 19.8
07/04/2018 13:00 457.26 0.00 -- 91.2 20.0
07/04/2018 12:00 457.26 0.00 -- 89.3 20.0
07/04/2018 11:00 457.26 0.00 -- 86.2 20.0
07/04/2018 10:00 457.26 0.00 -- 79.4 20.0
07/04/2018 09:00 457.26 0.00 -- 74.0 19.8
07/04/2018 08:00 457.26 0.00 -- 69.2 20.0
07/04/2018 07:00 457.26 0.00 -- 66.8 20.0
07/04/2018 06:00 457.26 0.00 -- 66.0 20.0
07/04/2018 05:00 457.27 0.00 -- 66.7 20.0
07/04/2018 04:00 457.27 0.00 -- 67.6 20.0
07/04/2018 03:00 457.27 0.00 -- 68.5 20.0
07/04/2018 02:00 457.27 0.00 -- 68.9 20.0
07/04/2018 01:00 457.27 0.00 -- 71.7 20.0
07/04/2018 00:00 457.27 0.00 0.00 72.2 20.3
07/03/2018 23:00 457.27 0.00 -- 76.1 20.0
07/03/2018 22:00 457.27 0.00 -- 78.4 21.0
07/03/2018 21:00 457.27 0.00 -- 81.5 21.0
07/03/2018 20:00 457.27 0.00 -- 86.9 21.0
07/03/2018 19:00 457.28 0.00 -- 90.2 21.0
07/03/2018 18:00 457.28 0.00 -- 93.0 21.0
07/03/2018 17:00 457.27 0.00 -- 94.1 21.0
07/03/2018 16:00 457.28 0.00 -- 97.0 21.0
07/03/2018 15:00 457.28 0.00 -- 93.4 21.0
07/03/2018 14:00 457.28 0.00 -- 88.8 21.5
07/03/2018 13:00 457.29 0.00 -- 92.1 21.3
07/03/2018 12:00 457.28 0.00 -- 89.8 21.0
07/03/2018 11:00 457.28 0.00 -- 82.8 21.3
07/03/2018 10:00 457.28 0.00 -- 76.2 21.0
07/03/2018 09:00 457.28 0.00 -- 74.6 21.8
07/03/2018 08:00 457.28 0.00 -- 72.0 22.0
07/03/2018 07:00 457.29 0.00 -- 69.6 21.8
07/03/2018 06:00 457.29 0.00 -- 70.1 22.0
07/03/2018 05:00 457.29 0.00 -- 70.5 22.0
07/03/2018 04:00 457.29 -- -- 71.3 22.0
07/03/2018 03:00 457.29 -- -- 72.5 22.5
07/03/2018 02:00 457.30 0.00 -- 73.9 23.0
07/03/2018 01:00 457.30 0.00 -- 74.2 23.0
07/03/2018 00:00 457.30 0.00 -- 75.0 23.0
07/02/2018 23:00 457.30 0.00 -- 77.1 23.0
07/02/2018 22:00 457.30 0.00 -- 79.0 23.0
07/02/2018 21:00 457.30 0.00 -- 82.4 23.3
07/02/2018 20:00 457.30 0.00 -- 85.0 23.8
07/02/2018 19:00 457.31 0.00 -- 88.0 24.0
07/02/2018 18:00 457.31 0.00 -- 90.6 24.3
07/02/2018 17:00 457.32 0.00 -- 89.9 25.0
07/02/2018 16:00 457.31 0.00 -- 87.7 25.0
07/02/2018 15:00 457.32 0.00 -- 87.7 25.0
07/02/2018 14:00 457.32 0.00 -- 83.6 25.0
07/02/2018 13:00 457.32 0.00 -- 83.0 25.0
07/02/2018 12:00 457.32 0.00 -- 82.2 25.3
07/02/2018 11:00 457.32 0.00 -- 77.0 25.8
07/02/2018 10:00 457.33 0.00 -- 75.2 26.0
07/02/2018 09:00 457.33 0.00 -- 74.7 26.0
07/02/2018 08:00 457.33 0.00 -- 74.1 26.0
07/02/2018 07:00 457.33 0.00 -- 74.1 26.0
07/02/2018 06:00 457.33 0.00 -- 73.8 26.0
07/02/2018 05:00 457.33 0.00 -- 74.2 26.8
07/02/2018 04:00 457.34 0.00 -- 74.2 27.0
07/02/2018 03:00 457.34 0.00 -- 74.5 27.0
07/02/2018 02:00 457.34 0.00 -- 75.7 27.3
07/02/2018 01:00 457.35 0.00 -- 76.9 28.0
07/02/2018 00:00 457.35 0.00 0.00 78.7 28.0
07/01/2018 23:00 457.35 0.00 -- 79.0 28.8
07/01/2018 22:00 457.36 0.00 -- 81.2 29.0
07/01/2018 21:00 457.36 0.00 -- 84.1 29.0
07/01/2018 20:00 457.36 0.00 -- 85.8 29.0
07/01/2018 19:00 457.36 0.00 -- 89.7 29.3
07/01/2018 18:00 457.36 0.00 -- 93.1 30.0
07/01/2018 17:00 457.36 0.00 -- 93.5 29.5
07/01/2018 16:00 457.37 0.00 -- 92.5 30.5
07/01/2018 15:00 457.37 0.00 -- 94.1 30.5
07/01/2018 14:00 457.37 0.00 -- 93.0 30.5
07/01/2018 13:00 457.37 0.00 -- 92.9 30.8
07/01/2018 12:00 457.38 0.00 -- 89.3 31.5
07/01/2018 11:00 457.38 0.00 -- 87.2 32.0
07/01/2018 10:00 457.39 0.00 -- 85.1 32.0
07/01/2018 09:00 457.39 0.00 -- 78.6 32.0
07/01/2018 08:00 457.39 0.00 -- 74.1 32.0
07/01/2018 07:00 457.39 0.00 -- 72.3 32.3
07/01/2018 06:00 457.39 0.01 -- 73.7 32.8
07/01/2018 05:00 457.40 0.00 -- 74.2 33.3
07/01/2018 04:00 457.40 0.00 -- 75.1 33.0
07/01/2018 03:00 457.40 0.00 -- 76.5 34.0
07/01/2018 02:00 457.41 0.00 -- 75.4 34.3
07/01/2018 01:00 457.41 0.00 -- 77.0 35.0
07/01/2018 00:00 457.41 0.00 0.01 79.3 35.3
06/30/2018 23:00 457.42 0.00 -- 79.3 35.0
06/30/2018 22:00 457.42 0.00 -- 79.8 35.5
06/30/2018 21:00 457.43 0.00 -- 86.8 36.0
06/30/2018 20:00 457.43 0.00 -- 89.6 36.3
06/30/2018 19:00 457.44 0.00 -- 90.8 36.8
06/30/2018 18:00 457.44 0.00 -- 91.3 37.3
06/30/2018 17:00 457.44 0.00 -- 92.4 37.8
06/30/2018 16:00 457.44 0.00 -- 89.5 37.5
06/30/2018 15:00 457.44 0.00 -- 87.1 38.5
06/30/2018 14:00 457.45 0.00 -- 86.3 38.5
06/30/2018 13:00 457.46 0.00 -- 86.9 39.0
06/30/2018 12:00 457.45 0.00 -- 83.1 38.3
06/30/2018 11:00 457.45 0.00 -- 80.1 38.5
06/30/2018 10:00 457.45 0.00 -- 73.9 39.0
06/30/2018 09:00 457.45 0.00 -- 70.7 39.0
06/30/2018 08:00 457.45 0.00 -- 65.4 39.0
06/30/2018 07:00 457.46 0.00 -- 63.4 40.0
06/30/2018 06:00 457.46 0.00 -- 63.0 40.0
06/30/2018 05:00 457.46 0.00 -- 63.9 40.3
06/30/2018 04:00 457.47 0.00 -- 64.8 41.0
06/30/2018 03:00 457.47 0.00 -- 65.1 41.0
06/30/2018 02:00 457.47 0.00 -- 65.0 41.0
06/30/2018 01:00 457.47 0.00 -- 66.7 41.5
06/30/2018 00:00 457.48 0.00 0.00 68.4 41.8
06/29/2018 23:00 457.48 0.00 -- 69.9 42.0
06/29/2018 22:00 457.48 0.00 -- 73.4 42.0
06/29/2018 21:00 457.47 0.00 -- 76.6 42.0
06/29/2018 20:00 457.48 0.00 -- 77.5 42.0
06/29/2018 19:00 457.48 0.00 -- 79.8 42.3
06/29/2018 18:00 457.48 0.01 -- 76.4 42.3
06/29/2018 17:00 457.48 0.00 -- 84.8 42.0
06/29/2018 16:00 457.48 0.00 -- 88.0 42.0
06/29/2018 15:00 457.48 0.00 -- 86.7 42.0
06/29/2018 14:00 457.48 0.00 -- 86.7 42.0
06/29/2018 13:00 457.48 0.00 -- 84.7 41.3
06/29/2018 12:00 457.47 0.00 -- 80.6 41.0
06/29/2018 11:00 457.47 0.00 -- 79.0 41.0
06/29/2018 10:00 457.47 0.00 -- 75.8 40.3
06/29/2018 09:00 457.46 0.00 -- 68.7 39.8
06/29/2018 08:00 457.45 0.00 -- 64.0 39.0
06/29/2018 07:00 457.45 0.00 -- 62.5 39.0
06/29/2018 06:00 457.45 0.00 -- 62.6 38.5
06/29/2018 05:00 457.44 0.00 -- 63.3 38.0
06/29/2018 04:00 457.44 0.00 -- 64.4 37.3
06/29/2018 03:00 457.44 0.00 -- 65.3 37.0
06/29/2018 02:00 457.43 0.00 -- 66.2 36.5
06/29/2018 01:00 457.42 0.00 -- 67.9 35.8
06/29/2018 00:00 457.42 0.00 0.01 68.6 35.0
06/28/2018 23:00 457.41 0.00 -- 69.4 34.5
06/28/2018 22:00 457.41 0.00 -- 70.2 33.8
06/28/2018 21:00 457.40 0.01 -- 70.9 32.8
06/28/2018 20:00 457.39 0.08 -- 71.8 31.8
06/28/2018 19:00 457.37 0.01 -- 73.1 30.3
06/28/2018 18:00 457.37 0.00 -- 72.5 29.3
06/28/2018 17:00 457.35 0.01 -- 70.9 28.0
06/28/2018 16:00 457.35 0.02 -- 69.4 27.3
06/28/2018 15:00 457.34 0.04 -- 67.8 26.5
06/28/2018 14:00 457.33 0.01 -- 66.5 25.3
06/28/2018 13:00 457.32 0.02 -- 65.1 24.5
06/28/2018 12:00 457.31 0.07 -- 64.4 23.8
06/28/2018 11:00 457.30 0.03 -- 63.5 22.8
06/28/2018 10:00 457.29 0.07 -- 63.4 21.8
06/28/2018 09:00 457.28 0.21 -- 62.4 20.3
06/28/2018 08:00 457.26 0.12 -- 62.5 18.5
06/28/2018 07:00 457.25 0.04 -- 62.1 18.0
06/28/2018 06:00 457.24 0.05 -- 62.6 18.0
06/28/2018 05:00 457.24 0.09 -- 62.1 17.0
06/28/2018 04:00 457.23 0.17 -- 61.8 16.3
06/28/2018 03:00 457.21 0.08 -- 62.7 15.0
06/28/2018 02:00 457.20 0.04 -- 61.9 14.5
06/28/2018 01:00 457.20 0.05 -- 63.4 14.0
06/28/2018 00:00 457.20 0.05 1.22 64.5 14.0
06/27/2018 23:00 457.19 0.05 -- 65.2 13.8
06/27/2018 22:00 457.19 0.00 -- 71.8 13.0
06/27/2018 21:00 457.19 0.00 -- 72.6 13.0
06/27/2018 20:00 457.19 0.00 -- 73.9 13.3
06/27/2018 19:00 457.19 0.00 -- 75.5 13.5
06/27/2018 18:00 457.20 0.00 -- 77.1 13.8
06/27/2018 17:00 457.18 0.00 -- 77.6 13.8
06/27/2018 16:00 457.21 0.00 -- 77.0 14.5
06/27/2018 15:00 457.21 0.00 -- 79.1 14.0
06/27/2018 14:00 457.20 0.00 -- 78.8 14.0
06/27/2018 13:00 457.19 0.00 -- 76.3 14.0
06/27/2018 12:00 457.21 0.00 -- 73.7 14.3
06/27/2018 11:00 457.19 0.00 -- 69.8 14.0
06/27/2018 10:00 457.19 0.00 -- 65.1 13.8
06/27/2018 09:00 457.19 0.00 -- 60.0 14.0
06/27/2018 08:00 457.19 0.00 -- 54.0 14.0
06/27/2018 07:00 457.19 0.00 -- 52.7 14.0
06/27/2018 06:00 457.20 0.00 -- 54.6 14.0
06/27/2018 05:00 457.20 0.00 -- 53.7 14.0
06/27/2018 04:00 457.20 0.00 -- 55.1 14.0
06/27/2018 03:00 457.20 0.00 -- 57.0 14.0
06/27/2018 02:00 457.20 0.00 -- 56.6 14.3
06/27/2018 01:00 457.20 0.00 -- 59.1 14.0
06/27/2018 00:00 457.20 0.00 0.10 61.5 14.3
06/26/2018 23:00 457.20 0.00 -- 62.2 14.8
06/26/2018 22:00 457.21 0.00 -- 66.4 15.0
06/26/2018 21:00 457.21 0.00 -- 74.8 15.0
06/26/2018 20:00 457.21 0.00 -- 78.0 15.8
06/26/2018 19:00 457.22 0.00 -- 79.3 15.8
06/26/2018 18:00 457.22 0.00 -- 80.4 15.8
06/26/2018 17:00 457.22 0.00 -- 79.2 16.0
06/26/2018 16:00 457.21 0.00 -- 79.2 15.3
06/26/2018 15:00 457.21 0.00 -- 77.9 15.3
06/26/2018 14:00 457.22 0.00 -- 76.0 15.3
06/26/2018 13:00 457.21 0.00 -- 74.8 15.0
06/26/2018 12:00 457.21 0.00 -- 70.8 15.0
06/26/2018 11:00 457.21 0.00 -- 72.5 15.0
06/26/2018 10:00 457.21 0.00 -- 65.4 15.0
06/26/2018 09:00 457.21 0.00 -- 57.8 15.0
06/26/2018 08:00 457.21 0.00 -- 53.3 15.0
06/26/2018 07:00 457.21 0.00 -- 47.2 15.5
06/26/2018 06:00 457.22 0.00 -- 48.5 16.0
06/26/2018 05:00 457.22 0.00 -- 48.3 16.0
06/26/2018 04:00 457.22 0.00 -- 50.6 16.0
06/26/2018 03:00 457.22 0.00 -- 48.2 16.0
06/26/2018 02:00 457.22 0.00 -- 51.3 16.0
06/26/2018 01:00 457.22 0.00 -- 52.3 16.5
06/26/2018 00:00 457.23 0.00 0.00 54.4 17.0
06/25/2018 23:00 457.23 0.00 -- 57.2 17.0
06/25/2018 22:00 457.23 0.00 -- 61.7 17.0
06/25/2018 21:00 457.23 0.00 -- 65.7 17.5
06/25/2018 20:00 457.24 0.00 -- 67.8 17.5
06/25/2018 19:00 457.24 0.00 -- 69.7 18.3
06/25/2018 18:00 457.25 0.00 -- 69.1 18.3
06/25/2018 17:00 457.24 0.00 -- 73.6 19.0
06/25/2018 16:00 457.26 0.00 -- 74.1 19.0
06/25/2018 15:00 457.26 0.00 -- 73.0 18.3
06/25/2018 14:00 457.25 0.00 -- 72.0 19.0
06/25/2018 13:00 457.24 0.00 -- 71.3 17.5
06/25/2018 12:00 457.24 0.00 -- 68.5 18.5
06/25/2018 11:00 457.25 0.00 -- 66.0 18.5
06/25/2018 10:00 457.25 0.00 -- 62.6 18.8
06/25/2018 09:00 457.25 0.00 -- 62.1 19.0
06/25/2018 08:00 457.25 0.00 -- 61.8 19.0
06/25/2018 07:00 457.25 0.00 -- 61.2 19.0
06/25/2018 06:00 457.25 0.00 -- 61.7 19.0
06/25/2018 05:00 457.26 0.00 -- 62.6 19.0
06/25/2018 04:00 457.25 0.01 -- 62.5 19.0
06/25/2018 03:00 457.26 0.01 -- 62.5 19.0
06/25/2018 02:00 457.26 0.00 -- 63.8 19.0
06/25/2018 01:00 457.26 0.00 -- 64.1 19.0
06/25/2018 00:00 457.26 0.00 0.02 64.5 19.8
06/24/2018 23:00 457.26 0.00 -- 65.7 20.0
06/24/2018 22:00 457.26 0.00 -- 66.7 20.0
06/24/2018 21:00 457.26 0.00 -- 67.3 20.0
06/24/2018 20:00 457.26 0.00 -- 68.3 20.0
06/24/2018 19:00 457.26 0.00 -- 67.1 20.0
06/24/2018 18:00 457.26 0.00 -- 66.8 20.0
06/24/2018 17:00 457.26 0.00 -- 67.5 20.0
06/24/2018 16:00 457.27 0.00 -- 69.5 20.0
06/24/2018 15:00 457.27 0.00 -- 70.8 20.0
06/24/2018 14:00 457.27 0.00 -- 68.6 20.0
06/24/2018 13:00 457.26 0.00 -- 65.4 20.0
06/24/2018 12:00 457.26 0.00 -- 63.8 20.0
06/24/2018 11:00 457.26 0.00 -- 61.7 19.8
06/24/2018 10:00 457.26 0.00 -- 60.4 19.3
06/24/2018 09:00 457.26 0.00 -- 57.0 19.0
06/24/2018 08:00 457.26 0.00 -- 55.9 19.3
06/24/2018 07:00 457.26 0.00 -- 55.2 19.0
06/24/2018 06:00 457.26 0.00 -- 56.0 19.0
06/24/2018 05:00 457.26 0.00 -- 55.8 19.0
06/24/2018 04:00 457.26 0.00 -- 54.5 19.0
06/24/2018 03:00 457.26 0.00 -- 53.9 19.0
06/24/2018 02:00 457.26 0.00 -- 54.1 19.0
06/24/2018 01:00 457.26 0.01 -- 53.7 19.0
06/24/2018 00:00 457.26 0.00 0.01 52.9 19.0
06/23/2018 23:00 457.26 0.00 -- 54.9 19.0
06/23/2018 22:00 457.26 0.00 -- 55.6 19.0
06/23/2018 21:00 457.25 0.14 -- 55.5 19.0
06/23/2018 20:00 457.24 0.07 -- 56.0 17.5
06/23/2018 19:00 457.23 0.02 -- 56.8 17.0
06/23/2018 18:00 457.23 0.08 -- 58.3 17.0
06/23/2018 17:00 457.23 0.01 -- 62.5 16.0
06/23/2018 16:00 457.22 0.00 -- 67.0 16.0
06/23/2018 15:00 457.22 0.00 -- 67.2 16.0
06/23/2018 14:00 457.22 0.00 -- 68.3 16.0
06/23/2018 13:00 457.22 0.00 -- 67.6 15.5
06/23/2018 12:00 457.21 0.00 -- 65.2 15.0
06/23/2018 11:00 457.21 0.00 -- 64.1 15.0
06/23/2018 10:00 457.21 0.00 -- 63.2 15.0
06/23/2018 09:00 457.21 0.00 -- 59.5 15.0
06/23/2018 08:00 457.21 0.00 -- 58.1 15.0
06/23/2018 07:00 457.21 0.00 -- 55.6 15.0
06/23/2018 06:00 457.21 0.00 -- 56.2 15.0
06/23/2018 05:00 457.21 0.00 -- 56.5 15.0
06/23/2018 04:00 457.21 0.00 -- 56.8 15.0
06/23/2018 03:00 457.21 0.00 -- 58.3 15.0
06/23/2018 02:00 457.21 0.00 -- 59.1 15.3
06/23/2018 01:00 457.21 0.00 -- 63.4 15.5
06/23/2018 00:00 457.22 0.00 0.32 62.6 15.8
06/22/2018 23:00 457.22 0.00 -- 66.7 15.5
06/22/2018 22:00 457.22 0.00 -- 68.5 16.0
06/22/2018 21:00 457.22 0.00 -- 72.7 16.0
06/22/2018 20:00 457.22 0.00 -- 76.2 16.3
06/22/2018 19:00 457.23 0.00 -- 77.0 17.0
06/22/2018 18:00 457.22 0.00 -- 77.6 16.8
06/22/2018 17:00 457.23 0.00 -- 80.8 16.5
06/22/2018 16:00 457.23 0.00 -- 78.6 17.0
06/22/2018 15:00 457.23 0.00 -- 76.0 16.3
06/22/2018 14:00 457.22 0.00 -- 73.7 16.5
06/22/2018 13:00 457.22 0.00 -- 72.3 16.0
06/22/2018 12:00 457.22 0.00 -- 70.0 16.0
06/22/2018 11:00 457.22 0.00 -- 69.3 16.0
06/22/2018 10:00 457.22 0.00 -- 64.9 16.0
06/22/2018 09:00 457.22 0.00 -- 57.7 16.0
06/22/2018 08:00 457.22 0.00 -- 52.3 16.3
06/22/2018 07:00 457.23 0.00 -- 49.2 16.3
06/22/2018 06:00 457.23 0.00 -- 47.8 16.5
06/22/2018 05:00 457.23 0.00 -- 49.7 17.0
06/22/2018 04:00 457.23 0.00 -- 48.3 17.0
06/22/2018 03:00 457.23 0.00 -- 51.4 17.0
06/22/2018 02:00 457.23 0.00 -- 51.7 17.0
06/22/2018 01:00 457.24 0.00 -- 54.5 17.0
06/22/2018 00:00 457.24 0.00 0.00 55.9 18.0
06/21/2018 23:00 457.24 0.00 -- 60.9 18.0
06/21/2018 22:00 457.24 0.00 -- 65.9 18.0
06/21/2018 21:00 457.24 0.00 -- 69.7 18.0
06/21/2018 20:00 457.24 0.00 -- 72.6 18.3
06/21/2018 19:00 457.25 0.00 -- 74.6 18.3
06/21/2018 18:00 457.24 0.00 -- 77.2 18.8
06/21/2018 17:00 457.25 0.00 -- 79.6 18.5
06/21/2018 16:00 457.25 0.00 -- 77.9 18.5
06/21/2018 15:00 457.25 0.00 -- 78.3 19.0
06/21/2018 14:00 457.25 0.00 -- 76.2 19.0
06/21/2018 13:00 457.26 0.00 -- 72.9 19.3
06/21/2018 12:00 457.26 0.00 -- 70.6 19.3
06/21/2018 11:00 457.25 0.00 -- 70.1 18.8
06/21/2018 10:00 457.26 0.00 -- 69.0 19.0
06/21/2018 09:00 457.25 0.00 -- 69.5 19.3
06/21/2018 08:00 457.26 0.00 -- 62.4 19.5
06/21/2018 07:00 457.26 0.00 -- 56.2 19.8
06/21/2018 06:00 457.26 0.00 -- 56.2 20.0
06/21/2018 05:00 457.26 0.00 -- 57.8 20.0
06/21/2018 04:00 457.27 0.00 -- 56.8 20.0
06/21/2018 03:00 457.27 0.00 -- 58.7 20.0
06/21/2018 02:00 457.27 0.00 -- 58.4 20.0
06/21/2018 01:00 457.27 0.00 -- 61.5 20.8
06/21/2018 00:00 457.27 0.00 0.00 62.4 20.8
06/20/2018 23:00 457.27 0.00 -- 64.2 21.0
06/20/2018 22:00 457.27 0.00 -- 69.6 21.0
06/20/2018 21:00 457.28 0.00 -- 76.8 21.0
06/20/2018 20:00 457.28 0.00 -- 78.9 21.8
06/20/2018 19:00 457.29 0.00 -- 79.6 22.0
06/20/2018 18:00 457.29 0.00 -- 79.3 22.3
06/20/2018 17:00 457.29 0.00 -- 80.0 22.0
06/20/2018 16:00 457.29 0.00 -- 79.3 23.3
06/20/2018 15:00 457.29 0.00 -- 79.5 22.3
06/20/2018 14:00 457.29 0.00 -- 77.1 22.8
06/20/2018 13:00 457.31 0.00 -- 75.9 23.0
06/20/2018 12:00 457.30 0.00 -- 75.2 22.8
06/20/2018 11:00 457.30 0.00 -- 73.3 22.8
06/20/2018 10:00 457.29 0.00 -- 69.1 22.5
06/20/2018 09:00 457.29 0.00 -- 63.0 22.5
06/20/2018 08:00 457.29 0.00 -- 55.4 22.8
06/20/2018 07:00 457.29 0.00 -- 51.3 23.0
06/20/2018 06:00 457.30 0.00 -- 52.9 23.0
06/20/2018 05:00 457.30 0.00 -- 52.3 23.0
06/20/2018 04:00 457.30 0.00 -- 53.5 23.0
06/20/2018 03:00 457.30 0.00 -- 55.1 23.0
06/20/2018 02:00 457.30 0.00 -- 57.2 23.5
06/20/2018 01:00 457.31 0.00 -- 59.5 24.0
06/20/2018 00:00 457.30 0.00 0.00 61.6 24.0
06/19/2018 23:00 457.31 0.00 -- 64.8 24.3
06/19/2018 22:00 457.31 0.00 -- 67.4 24.5
06/19/2018 21:00 457.31 0.00 -- 70.9 24.5
06/19/2018 20:00 457.31 0.00 -- 72.9 24.3
06/19/2018 19:00 457.31 0.00 -- 75.0 24.5
06/19/2018 18:00 457.34 0.00 -- 76.8 25.8
06/19/2018 17:00 457.32 0.00 -- 78.1 25.3
06/19/2018 16:00 457.32 0.00 -- 76.8 25.8
06/19/2018 15:00 457.32 0.00 -- 76.2 25.3
06/19/2018 14:00 457.33 0.00 -- 74.4 25.5
06/19/2018 13:00 457.32 0.00 -- 73.6 25.5
06/19/2018 12:00 457.31 0.00 -- 72.8 25.3
06/19/2018 11:00 457.31 0.00 -- 71.6 24.8
06/19/2018 10:00 457.32 0.00 -- 69.9 25.5
06/19/2018 09:00 457.32 0.00 -- 68.9 25.3
06/19/2018 08:00 457.32 0.00 -- 68.5 25.0
06/19/2018 07:00 457.32 0.00 -- 64.6 25.0
06/19/2018 06:00 457.32 0.00 -- 66.1 25.0
06/19/2018 05:00 457.32 0.00 -- 68.4 25.0
06/19/2018 04:00 457.32 0.00 -- 70.5 25.0
06/19/2018 03:00 457.32 0.00 -- 71.8 25.0
06/19/2018 02:00 457.32 0.01 -- 73.0 24.3
06/19/2018 01:00 457.32 0.00 -- 73.8 24.8
06/19/2018 00:00 457.31 0.00 0.01 74.3 24.5
06/18/2018 23:00 457.31 0.00 -- 74.6 24.0
06/18/2018 22:00 457.31 0.00 -- 72.3 24.0
06/18/2018 21:00 457.31 0.01 -- 72.0 24.0
06/18/2018 20:00 457.31 0.11 -- 72.3 23.8
06/18/2018 19:00 457.30 0.07 -- 73.4 22.8
06/18/2018 18:00 457.27 0.71 -- 73.0 18.8
06/18/2018 17:00 457.20 0.00 -- 85.0 15.3
06/18/2018 16:00 457.22 0.00 -- 86.4 16.0
06/18/2018 15:00 457.20 0.00 -- 84.6 15.3
06/18/2018 14:00 457.22 0.00 -- 83.6 15.3
06/18/2018 13:00 457.22 0.00 -- 82.3 15.8
06/18/2018 12:00 457.20 0.00 -- 80.2 15.0
06/18/2018 11:00 457.21 0.00 -- 79.5 15.0
06/18/2018 10:00 457.20 0.00 -- 73.9 14.5
06/18/2018 09:00 457.20 0.00 -- 65.6 14.5
06/18/2018 08:00 457.20 0.00 -- 62.4 14.5
06/18/2018 07:00 457.20 0.00 -- 62.0 14.8
06/18/2018 06:00 457.21 0.00 -- 61.8 15.0
06/18/2018 05:00 457.21 0.00 -- 60.7 15.0
06/18/2018 04:00 457.21 0.00 -- 61.4 15.0
06/18/2018 03:00 457.21 0.00 -- 60.8 15.0
06/18/2018 02:00 457.21 0.00 -- 61.7 15.0
06/18/2018 01:00 457.21 0.00 -- 64.0 15.0
06/18/2018 00:00 457.21 0.00 0.90 66.8 15.0
06/17/2018 23:00 457.21 0.00 -- 70.2 15.0
06/17/2018 22:00 457.21 0.00 -- 71.0 15.0
06/17/2018 21:00 457.21 0.00 -- 75.3 15.0
06/17/2018 20:00 457.21 0.00 -- 79.1 15.3
06/17/2018 19:00 457.22 0.00 -- 84.4 15.3
06/17/2018 18:00 457.21 0.00 -- 88.6 14.8
06/17/2018 17:00 457.22 0.00 -- 88.8 15.3
06/17/2018 16:00 457.21 0.00 -- 87.7 15.3
06/17/2018 15:00 457.21 0.00 -- 88.4 15.5
06/17/2018 14:00 457.21 0.00 -- 85.7 15.5
06/17/2018 13:00 457.21 0.00 -- 84.4 15.0
06/17/2018 12:00 457.21 0.00 -- 84.0 15.0
06/17/2018 11:00 457.21 0.00 -- 77.8 15.0
06/17/2018 10:00 457.21 0.00 -- 73.5 15.0
06/17/2018 09:00 457.21 0.00 -- 64.3 15.0
06/17/2018 08:00 457.21 0.00 -- 57.0 15.0
06/17/2018 07:00 457.21 0.00 -- 52.4 15.0
06/17/2018 06:00 457.21 0.00 -- 53.0 15.0
06/17/2018 05:00 457.21 0.00 -- 53.1 15.0
06/17/2018 04:00 457.21 0.00 -- 53.7 15.0
06/17/2018 03:00 457.21 0.00 -- 55.9 15.0
06/17/2018 02:00 457.21 0.00 -- 56.1 15.3
06/17/2018 01:00 457.21 0.00 -- 60.0 15.5
06/17/2018 00:00 457.21 0.00 0.00 62.6 15.8
06/16/2018 23:00 457.22 0.00 -- 64.3 16.0
06/16/2018 22:00 457.22 0.00 -- 68.7 16.0
06/16/2018 21:00 457.22 0.00 -- 74.1 16.0
06/16/2018 20:00 457.22 0.00 -- 78.9 15.8
06/16/2018 19:00 457.22 0.00 -- 81.3 16.0
06/16/2018 18:00 457.23 0.00 -- 82.8 16.3
06/16/2018 17:00 457.22 0.00 -- 83.3 16.0
06/16/2018 16:00 457.22 0.00 -- 81.2 16.8
06/16/2018 15:00 457.23 0.00 -- 81.1 16.5
06/16/2018 14:00 457.22 0.00 -- 79.8 16.0
06/16/2018 13:00 457.23 0.00 -- 78.7 16.5
06/16/2018 12:00 457.24 0.00 -- 77.3 17.0
06/16/2018 11:00 457.21 0.00 -- 75.0 15.5
06/16/2018 10:00 457.22 0.00 -- 71.9 16.0
06/16/2018 09:00 457.23 0.00 -- 68.9 16.0
06/16/2018 08:00 457.22 0.00 -- 58.3 15.8
06/16/2018 07:00 457.22 0.00 -- 50.8 15.5
06/16/2018 06:00 457.22 0.00 -- 50.8 16.0
06/16/2018 05:00 457.22 0.00 -- 52.3 16.0
06/16/2018 04:00 457.22 0.00 -- 52.0 16.0
06/16/2018 03:00 457.22 0.00 -- 53.0 16.0
06/16/2018 02:00 457.22 0.00 -- 54.7 16.0
06/16/2018 01:00 457.22 0.00 -- 55.7 16.3
06/16/2018 00:00 457.23 0.00 0.00 58.0 16.3
06/15/2018 23:00 457.23 0.00 -- 61.5 16.8
06/15/2018 22:00 457.23 0.00 -- 64.7 17.0
06/15/2018 21:00 457.23 0.00 -- 69.7 17.0
06/15/2018 20:00 457.23 0.00 -- 72.6 17.0
06/15/2018 19:00 457.23 0.00 -- 73.0 17.0
06/15/2018 18:00 457.24 0.00 -- 77.8 17.0
06/15/2018 17:00 457.23 0.00 -- 77.8 17.0
06/15/2018 16:00 457.23 0.00 -- 75.4 16.5
06/15/2018 15:00 457.22 0.00 -- 74.8 16.3
06/15/2018 14:00 457.22 0.00 -- 72.0 16.0
06/15/2018 13:00 457.22 0.00 -- 67.4 16.0
06/15/2018 12:00 457.22 0.00 -- 64.0 16.0
06/15/2018 11:00 457.22 0.00 -- 60.3 16.0
06/15/2018 10:00 457.22 0.00 -- 56.7 16.0
06/15/2018 09:00 457.22 0.00 -- 55.1 16.0
06/15/2018 08:00 457.22 0.00 -- 54.5 16.0
06/15/2018 07:00 457.22 0.00 -- 53.6 16.0
06/15/2018 06:00 457.23 0.00 -- 54.0 16.0
06/15/2018 05:00 457.23 0.00 -- 54.1 16.0
06/15/2018 04:00 457.22 0.00 -- 54.0 16.0
06/15/2018 03:00 457.22 0.00 -- 56.1 16.0
06/15/2018 02:00 457.23 0.00 -- 57.4 16.0
06/15/2018 01:00 457.23 0.00 -- 57.7 16.3
06/15/2018 00:00 457.23 0.00 0.00 58.5 16.0
06/14/2018 23:00 457.22 0.00 -- 63.3 16.5
06/14/2018 22:00 457.23 0.00 -- 65.3 17.0
06/14/2018 21:00 457.23 0.00 -- 65.8 17.0
06/14/2018 20:00 457.23 0.00 -- 66.7 17.0
06/14/2018 19:00 457.24 0.00 -- 68.5 17.3
06/14/2018 18:00 457.24 0.00 -- 68.2 17.3
06/14/2018 17:00 457.23 0.00 -- 67.3 16.8
06/14/2018 16:00 457.24 0.00 -- 69.1 17.5
06/14/2018 15:00 457.24 0.00 -- 69.9 17.3
06/14/2018 14:00 457.25 0.00 -- 69.5 17.3
06/14/2018 13:00 457.24 0.00 -- 70.4 17.5
06/14/2018 12:00 457.23 0.00 -- 69.6 17.3
06/14/2018 11:00 457.23 0.00 -- 69.3 17.0
06/14/2018 10:00 457.23 0.00 -- 67.5 17.0
06/14/2018 09:00 457.23 0.00 -- 66.5 17.3
06/14/2018 08:00 457.23 0.00 -- 66.3 17.3
06/14/2018 07:00 457.22 0.00 -- 65.6 17.5
06/14/2018 06:00 457.24 0.00 -- 63.0 17.3
06/14/2018 05:00 457.24 0.00 -- 64.7 17.3
06/14/2018 04:00 457.24 0.00 -- 65.9 17.8
06/14/2018 03:00 457.24 0.04 -- 66.2 17.8
06/14/2018 02:00 457.25 0.04 -- 66.8 17.3
06/14/2018 01:00 457.22 0.00 -- 68.9 16.8
06/14/2018 00:00 457.23 0.00 0.08 69.5 17.0
06/13/2018 23:00 457.23 0.00 -- 69.7 16.8
06/13/2018 22:00 457.23 0.00 -- 69.9 17.5
06/13/2018 21:00 457.23 0.00 -- 70.8 17.3
06/13/2018 20:00 457.23 0.00 -- 72.2 17.5
06/13/2018 19:00 457.24 0.00 -- 72.2 17.3
06/13/2018 18:00 457.23 0.00 -- 75.3 17.3
06/13/2018 17:00 457.24 0.00 -- 79.8 17.8
06/13/2018 16:00 457.23 0.00 -- 81.3 17.0
06/13/2018 15:00 457.24 0.00 -- 81.5 17.3
06/13/2018 14:00 457.25 0.00 -- 79.8 18.3
06/13/2018 13:00 457.24 0.00 -- 79.4 17.5
06/13/2018 12:00 457.24 0.00 -- 77.1 17.5
06/13/2018 11:00 457.23 0.00 -- 75.1 17.0
06/13/2018 10:00 457.23 0.00 -- 71.8 17.0
06/13/2018 09:00 457.23 0.00 -- 68.8 17.0
06/13/2018 08:00 457.24 0.00 -- 65.1 17.0
06/13/2018 07:00 457.23 0.00 -- 63.1 17.5
06/13/2018 06:00 457.24 0.00 -- 64.8 17.0
06/13/2018 05:00 457.24 0.00 -- 65.8 18.0
06/13/2018 04:00 457.23 0.00 -- 67.1 17.0
06/13/2018 03:00 457.23 0.00 -- 68.8 17.0
06/13/2018 02:00 457.23 0.00 -- 70.2 17.5
06/13/2018 01:00 457.25 0.00 -- 71.1 18.3
06/13/2018 00:00 457.25 0.00 0.00 72.6 18.3
06/12/2018 23:00 457.25 0.00 -- 74.1 18.0
06/12/2018 22:00 457.24 0.00 -- 75.1 18.5
06/12/2018 21:00 457.24 0.00 -- 77.3 17.5
06/12/2018 20:00 457.26 0.00 -- 79.7 18.5
06/12/2018 19:00 457.26 0.00 -- 80.5 18.8
06/12/2018 18:00 457.25 0.00 -- 82.4 18.8
06/12/2018 17:00 457.25 0.00 -- 82.5 18.5
06/12/2018 16:00 457.25 0.00 -- 82.5 18.3
06/12/2018 15:00 457.25 0.00 -- 80.4 19.0
06/12/2018 14:00 457.25 0.00 -- 80.3 18.5
06/12/2018 13:00 457.26 0.00 -- 74.7 18.8
06/12/2018 12:00 457.25 0.00 -- 71.8 18.3
06/12/2018 11:00 457.26 0.00 -- 68.3 18.3
06/12/2018 10:00 457.24 0.00 -- 63.3 17.8
06/12/2018 09:00 457.24 0.00 -- 58.0 18.0
06/12/2018 08:00 457.24 0.00 -- 49.8 18.0
06/12/2018 07:00 457.24 0.00 -- 46.6 18.0
06/12/2018 06:00 457.24 0.00 -- 46.7 18.0
06/12/2018 05:00 457.24 0.00 -- 47.7 18.0
06/12/2018 04:00 457.24 0.00 -- 47.4 18.0
06/12/2018 03:00 457.25 0.00 -- 50.4 18.0
06/12/2018 02:00 457.25 0.00 -- 52.0 18.0
06/12/2018 01:00 457.24 0.00 -- 54.7 18.0
06/12/2018 00:00 457.25 0.00 0.00 57.8 18.8
06/11/2018 23:00 457.25 0.00 -- 59.9 18.8
06/11/2018 22:00 457.25 0.00 -- 62.5 18.0
06/11/2018 21:00 457.25 0.00 -- 67.7 18.8
06/11/2018 20:00 457.25 0.00 -- 71.5 18.5
06/11/2018 19:00 457.26 0.00 -- 73.5 19.0
06/11/2018 18:00 457.26 0.00 -- 73.7 19.3
06/11/2018 17:00 457.25 0.00 -- 75.3 19.3
06/11/2018 16:00 457.25 0.00 -- 73.7 18.8
06/11/2018 15:00 457.24 0.00 -- 71.2 18.0
06/11/2018 14:00 457.25 0.00 -- 71.0 18.0
06/11/2018 13:00 457.24 0.00 -- 69.2 18.3
06/11/2018 12:00 457.25 0.00 -- 64.7 18.3
06/11/2018 11:00 457.25 0.00 -- 61.6 18.0
06/11/2018 10:00 457.24 0.00 -- 59.1 18.0
06/11/2018 09:00 457.24 0.00 -- 55.1 18.0
06/11/2018 08:00 457.25 0.00 -- 48.9 18.0
06/11/2018 07:00 457.25 0.00 -- 43.2 18.0
06/11/2018 06:00 457.25 0.00 -- 44.6 18.0
06/11/2018 05:00 457.25 0.00 -- 47.1 18.5
06/11/2018 04:00 457.25 0.00 -- 46.3 18.5
06/11/2018 03:00 457.25 0.00 -- 48.7 18.8
06/11/2018 02:00 457.25 0.00 -- 51.2 18.8
06/11/2018 01:00 457.25 0.00 -- 52.4 19.0
06/11/2018 00:00 457.25 0.00 0.00 55.2 19.0
06/10/2018 23:00 457.26 0.00 -- 57.6 19.0
06/10/2018 22:00 457.26 0.00 -- 61.7 19.0
06/10/2018 21:00 457.26 0.00 -- 67.5 19.0
06/10/2018 20:00 457.26 0.00 -- 71.1 19.5
06/10/2018 19:00 457.26 0.00 -- 73.4 20.0
06/10/2018 18:00 457.26 0.00 -- 76.0 19.5
06/10/2018 17:00 457.26 0.00 -- 75.8 19.0
06/10/2018 16:00 457.26 0.00 -- 76.3 19.0
06/10/2018 15:00 457.26 0.00 -- 73.2 19.5
06/10/2018 14:00 457.25 0.00 -- 72.8 19.3
06/10/2018 13:00 457.27 0.00 -- 71.1 19.5
06/10/2018 12:00 457.27 0.00 -- 67.9 19.8
06/10/2018 11:00 457.25 0.00 -- 69.6 19.0
06/10/2018 10:00 457.25 0.00 -- 63.9 19.0
06/10/2018 09:00 457.25 0.00 -- 57.1 19.0
06/10/2018 08:00 457.25 0.00 -- 48.8 19.0
06/10/2018 07:00 457.25 0.00 -- 42.6 19.0
06/10/2018 06:00 457.26 0.00 -- 44.2 19.0
06/10/2018 05:00 457.26 0.00 -- 44.2 19.0
06/10/2018 04:00 457.26 0.00 -- 48.7 19.0
06/10/2018 03:00 457.26 0.00 -- 47.5 19.3
06/10/2018 02:00 457.26 0.00 -- 48.2 19.8
06/10/2018 01:00 457.26 0.00 -- 52.4 19.5
06/10/2018 00:00 457.26 0.00 0.00 54.6 20.0
06/09/2018 23:00 457.26 0.00 -- 59.3 20.0
06/09/2018 22:00 457.27 0.00 -- 62.3 20.0
06/09/2018 21:00 457.27 0.00 -- 68.5 20.3
06/09/2018 20:00 457.28 0.00 -- 70.9 20.8
06/09/2018 19:00 457.28 0.00 -- 73.2 21.5
06/09/2018 18:00 457.28 0.00 -- 75.2 21.0
06/09/2018 17:00 457.27 0.00 -- 75.9 21.0
06/09/2018 16:00 457.26 0.00 -- 73.3 20.0
06/09/2018 15:00 457.26 0.00 -- 73.3 20.5
06/09/2018 14:00 457.28 0.00 -- 72.8 21.0
06/09/2018 13:00 457.27 0.00 -- 71.8 20.0
06/09/2018 12:00 457.26 0.00 -- 71.3 20.3
06/09/2018 11:00 457.28 0.00 -- 70.3 20.8
06/09/2018 10:00 457.27 0.00 -- 66.1 20.0
06/09/2018 09:00 457.27 0.00 -- 58.1 20.3
06/09/2018 08:00 457.27 0.00 -- 50.8 20.8
06/09/2018 07:00 457.27 0.00 -- 46.1 20.5
06/09/2018 06:00 457.28 0.00 -- 46.8 21.0
06/09/2018 05:00 457.28 0.00 -- 46.9 21.0
06/09/2018 04:00 457.28 0.00 -- 48.0 21.0
06/09/2018 03:00 457.28 0.00 -- 49.6 21.3
06/09/2018 02:00 457.28 0.00 -- 50.9 21.3
06/09/2018 01:00 457.28 0.00 -- 53.5 21.3
06/09/2018 00:00 457.28 0.00 0.00 55.2 21.0
06/08/2018 23:00 457.28 0.00 -- 57.4 21.3
06/08/2018 22:00 457.28 0.00 -- 61.4 22.0
06/08/2018 21:00 457.28 0.00 -- 68.3 21.5
06/08/2018 20:00 457.28 0.00 -- 71.8 21.8
06/08/2018 19:00 457.29 0.00 -- 74.0 21.8
06/08/2018 18:00 457.29 0.00 -- 76.6 22.0
06/08/2018 17:00 457.29 0.00 -- 76.4 21.8
06/08/2018 16:00 457.28 0.00 -- 75.3 22.3
06/08/2018 15:00 457.29 0.00 -- 74.8 21.5
06/08/2018 14:00 457.29 0.00 -- 75.0 22.3
06/08/2018 13:00 457.29 0.00 -- 75.1 22.8
06/08/2018 12:00 457.29 0.00 -- 73.0 22.0
06/08/2018 11:00 457.29 0.00 -- 70.2 22.0
06/08/2018 10:00 457.29 0.00 -- 65.6 22.0
06/08/2018 09:00 457.29 0.00 -- 55.6 22.0
06/08/2018 08:00 457.29 0.00 -- 52.3 22.0
06/08/2018 07:00 457.29 0.00 -- 49.9 22.0
06/08/2018 06:00 457.29 0.00 -- 49.8 22.0
06/08/2018 05:00 457.29 0.00 -- 51.6 22.5
06/08/2018 04:00 457.29 0.00 -- 51.7 22.8
06/08/2018 03:00 457.29 0.00 -- 51.9 23.0
06/08/2018 02:00 457.29 0.00 -- 54.3 23.0
06/08/2018 01:00 457.30 0.00 -- 55.8 23.0
06/08/2018 00:00 457.30 0.00 0.00 57.4 23.0
06/07/2018 23:00 457.30 0.00 -- 58.4 23.0
06/07/2018 22:00 457.30 0.00 -- 61.6 23.8
06/07/2018 21:00 457.30 0.00 -- 65.7 23.8
06/07/2018 20:00 457.31 0.00 -- 68.0 24.0
06/07/2018 19:00 457.30 0.00 -- 67.7 24.0
06/07/2018 18:00 457.31 0.00 -- 67.9 24.0
06/07/2018 17:00 457.31 0.00 -- 68.8 24.0
06/07/2018 16:00 457.31 0.00 -- 68.0 24.0
06/07/2018 15:00 457.31 0.00 -- 66.7 23.8
06/07/2018 14:00 457.31 0.00 -- 66.6 24.3
06/07/2018 13:00 457.31 0.00 -- 67.4 24.0
06/07/2018 12:00 457.31 0.00 -- 64.0 24.0
06/07/2018 11:00 457.31 0.00 -- 60.4 24.0
06/07/2018 10:00 457.31 0.00 -- 57.0 24.0
06/07/2018 09:00 457.31 0.00 -- 54.7 24.0
06/07/2018 08:00 457.30 0.00 -- 50.6 23.8
06/07/2018 07:00 457.31 0.00 -- 49.5 24.0
06/07/2018 06:00 457.31 0.00 -- 50.8 24.0
06/07/2018 05:00 457.31 0.00 -- 51.3 24.0
06/07/2018 04:00 457.31 0.00 -- 51.8 24.0
06/07/2018 03:00 457.31 0.00 -- 51.8 24.0
06/07/2018 02:00 457.31 0.00 -- 51.6 24.0
06/07/2018 01:00 457.31 0.00 -- 51.0 24.3
06/07/2018 00:00 457.31 0.00 0.00 52.5 24.5
06/06/2018 23:00 457.31 0.00 -- 55.8 25.0
06/06/2018 22:00 457.32 0.00 -- 58.5 25.0
06/06/2018 21:00 457.32 0.00 -- 62.2 25.0
06/06/2018 20:00 457.32 0.00 -- 63.1 25.0
06/06/2018 19:00 457.32 0.00 -- 65.4 25.0
06/06/2018 18:00 457.32 0.00 -- 63.0 25.0
06/06/2018 17:00 457.32 0.00 -- 67.3 25.0
06/06/2018 16:00 457.33 0.00 -- 64.8 25.5
06/06/2018 15:00 457.32 0.00 -- 65.1 25.0
06/06/2018 14:00 457.33 0.00 -- 65.7 25.3
06/06/2018 13:00 457.32 0.00 -- 62.4 25.0
06/06/2018 12:00 457.32 0.00 -- 60.0 25.0
06/06/2018 11:00 457.32 0.00 -- 57.9 25.0
06/06/2018 10:00 457.31 0.01 -- 55.6 25.0
06/06/2018 09:00 457.32 0.00 -- 52.6 25.0
06/06/2018 08:00 457.32 0.00 -- 51.0 25.0
06/06/2018 07:00 457.32 0.00 -- 51.1 25.0
06/06/2018 06:00 457.32 0.00 -- 51.4 25.0
06/06/2018 05:00 457.32 0.00 -- 51.4 25.0
06/06/2018 04:00 457.32 0.00 -- 51.4 25.0
06/06/2018 03:00 457.32 0.00 -- 51.5 25.0
06/06/2018 02:00 457.32 0.00 -- 51.4 25.0
06/06/2018 01:00 457.32 0.01 -- 52.0 25.0
06/06/2018 00:00 457.32 0.03 0.02 52.1 25.0
06/05/2018 23:00 457.32 0.00 -- 53.5 25.0
06/05/2018 22:00 457.32 0.01 -- 53.2 25.0
06/05/2018 21:00 457.32 0.01 -- 54.0 25.0
06/05/2018 20:00 457.32 0.00 -- 54.6 25.0
06/05/2018 19:00 457.32 0.01 -- 54.9 25.0
06/05/2018 18:00 457.32 0.06 -- 54.9 24.8
06/05/2018 17:00 457.31 0.02 -- 54.9 24.0
06/05/2018 16:00 457.31 0.02 -- 54.5 24.0
06/05/2018 15:00 457.31 0.00 -- 54.3 24.0
06/05/2018 14:00 457.31 0.00 -- 56.1 23.5
06/05/2018 13:00 457.31 0.00 -- 57.8 24.0
06/05/2018 12:00 457.31 0.00 -- 57.3 24.0
06/05/2018 11:00 457.31 0.00 -- 52.7 24.0
06/05/2018 10:00 457.31 0.00 -- 51.1 24.0
06/05/2018 09:00 457.31 0.00 -- 48.9 23.8
06/05/2018 08:00 457.31 0.00 -- 48.1 24.0
06/05/2018 07:00 457.31 0.00 -- 48.3 24.0
06/05/2018 06:00 457.31 0.00 -- 47.5 24.0
06/05/2018 05:00 457.31 0.00 -- 47.3 24.0
06/05/2018 04:00 457.31 0.00 -- 48.0 24.0
06/05/2018 03:00 457.31 0.00 -- 49.1 24.0
06/05/2018 02:00 457.31 0.00 -- 49.1 24.0
06/05/2018 01:00 457.31 0.00 -- 49.0 24.0
06/05/2018 00:00 457.31 0.01 0.16 49.0 24.0
06/04/2018 23:00 457.31 0.01 -- 48.4 24.0
06/04/2018 22:00 457.31 0.00 -- 49.6 24.0
06/04/2018 21:00 457.31 0.00 -- 49.4 24.0
06/04/2018 20:00 457.31 0.00 -- 50.1 24.0
06/04/2018 19:00 457.31 0.00 -- 50.6 24.0
06/04/2018 18:00 457.31 0.01 -- 50.4 24.0
06/04/2018 17:00 457.31 0.00 -- 50.8 24.0
06/04/2018 16:00 457.31 0.00 -- 50.1 24.0
06/04/2018 15:00 457.31 0.03 -- 50.4 24.0
06/04/2018 14:00 457.31 0.06 -- 50.2 24.0
06/04/2018 13:00 457.30 0.04 -- 49.6 23.3
06/04/2018 12:00 457.30 0.04 -- 51.2 23.0
06/04/2018 11:00 457.30 0.01 -- 50.7 23.0
06/04/2018 10:00 457.30 0.11 -- 50.3 23.0
06/04/2018 09:00 457.29 0.11 -- 49.6 21.8
06/04/2018 08:00 457.28 0.00 -- 50.3 21.0
06/04/2018 07:00 457.28 0.00 -- 50.2 21.0
06/04/2018 06:00 457.28 0.00 -- 50.0 21.0
06/04/2018 05:00 457.28 0.00 -- 51.1 21.8
06/04/2018 04:00 457.29 0.00 -- 50.2 22.0
06/04/2018 03:00 457.29 0.00 -- 49.2 22.0
06/04/2018 02:00 457.29 0.00 -- 51.5 22.0
06/04/2018 01:00 457.29 0.00 -- 50.9 22.0
06/04/2018 00:00 457.29 0.00 0.43 54.1 22.0
06/03/2018 23:00 457.29 0.00 -- 55.0 22.0
06/03/2018 22:00 457.29 0.00 -- 57.6 22.8
06/03/2018 21:00 457.30 0.00 -- 61.4 23.0
06/03/2018 20:00 457.28 0.00 -- 65.6 22.8
06/03/2018 19:00 457.30 0.00 -- 71.2 23.0
06/03/2018 18:00 457.30 0.00 -- 74.3 23.0
06/03/2018 17:00 457.29 0.00 -- 76.0 22.8
06/03/2018 16:00 457.29 0.00 -- 72.2 22.5
06/03/2018 15:00 457.29 0.00 -- 70.5 22.8
06/03/2018 14:00 457.29 0.00 -- 67.4 22.8
06/03/2018 13:00 457.30 0.00 -- 66.2 23.0
06/03/2018 12:00 457.30 0.00 -- 64.2 23.0
06/03/2018 11:00 457.30 0.00 -- 61.4 22.5
06/03/2018 10:00 457.29 0.00 -- 59.2 22.3
06/03/2018 09:00 457.29 0.00 -- 56.5 22.8
06/03/2018 08:00 457.30 0.00 -- 50.6 23.0
06/03/2018 07:00 457.29 0.00 -- 47.5 23.0
06/03/2018 06:00 457.30 0.00 -- 48.4 23.0
06/03/2018 05:00 457.30 0.00 -- 50.9 23.0
06/03/2018 04:00 457.30 0.00 -- 53.9 23.3
06/03/2018 03:00 457.30 0.00 -- 57.0 23.0
06/03/2018 02:00 457.30 0.00 -- 59.4 23.8
06/03/2018 01:00 457.30 0.00 -- 58.8 23.5
06/03/2018 00:00 457.31 0.00 0.00 61.7 24.0
06/02/2018 23:00 457.31 0.00 -- 64.3 24.0
06/02/2018 22:00 457.31 0.00 -- 67.7 24.0
06/02/2018 21:00 457.31 0.00 -- 72.8 24.3
06/02/2018 20:00 457.31 0.00 -- 75.3 24.0
06/02/2018 19:00 457.31 0.00 -- 78.1 24.0
06/02/2018 18:00 457.31 0.00 -- 80.1 24.0
06/02/2018 17:00 457.31 0.00 -- 81.3 24.3
06/02/2018 16:00 457.30 0.00 -- 80.7 23.0
06/02/2018 15:00 457.31 0.00 -- 80.8 23.8
06/02/2018 14:00 457.31 0.00 -- 79.5 24.0
06/02/2018 13:00 457.31 0.00 -- 78.1 24.0
06/02/2018 12:00 457.31 0.00 -- 75.3 24.3
06/02/2018 11:00 457.31 0.00 -- 77.5 24.8
06/02/2018 10:00 457.31 0.00 -- 74.5 24.5
06/02/2018 09:00 457.31 0.00 -- 74.0 24.5
06/02/2018 08:00 457.31 0.00 -- 71.0 24.3
06/02/2018 07:00 457.31 0.00 -- 69.1 24.3
06/02/2018 06:00 457.31 0.00 -- 69.7 24.8
06/02/2018 05:00 457.32 0.00 -- 69.9 24.8
06/02/2018 04:00 457.31 0.00 -- 69.7 24.3
06/02/2018 03:00 457.31 0.00 -- 69.3 24.5
06/02/2018 02:00 457.31 0.00 -- 70.5 25.0
06/02/2018 01:00 457.31 0.00 -- 71.4 24.8
06/02/2018 00:00 457.32 0.00 0.00 72.0 24.8
06/01/2018 23:00 457.31 0.00 -- 73.7 25.0
06/01/2018 22:00 457.32 0.00 -- 76.8 25.0
06/01/2018 21:00 457.32 0.00 -- 79.1 25.0
06/01/2018 20:00 457.32 0.00 -- 80.7 25.3
06/01/2018 19:00 457.32 0.00 -- 81.2 25.3
06/01/2018 18:00 457.31 0.00 -- 83.8 24.8
06/01/2018 17:00 457.32 0.00 -- 81.8 25.5
06/01/2018 16:00 457.33 0.00 -- 80.3 25.8
06/01/2018 15:00 457.32 0.00 -- 78.9 25.0
06/01/2018 14:00 457.32 0.00 -- 78.3 25.0
06/01/2018 13:00 457.32 0.00 -- 78.6 25.0
06/01/2018 12:00 457.32 0.00 -- 78.5 24.5
06/01/2018 11:00 457.32 0.00 -- 78.6 25.0
06/01/2018 10:00 457.31 0.00 -- 74.2 24.5
06/01/2018 09:00 457.32 0.00 -- 71.9 25.0
06/01/2018 08:00 457.32 0.00 -- 71.3 24.5
06/01/2018 07:00 457.31 0.00 -- 71.2 24.8
06/01/2018 06:00 457.32 0.00 -- 71.5 24.8
06/01/2018 05:00 457.32 0.00 -- 72.0 24.8
06/01/2018 04:00 457.32 0.00 -- 72.4 25.0
06/01/2018 03:00 457.32 0.00 -- 72.8 25.0
06/01/2018 02:00 457.32 0.00 -- 73.4 25.0
06/01/2018 01:00 457.32 0.00 -- 74.3 24.8
06/01/2018 00:00 457.31 0.00 0.00 75.5 24.8
05/31/2018 23:00 457.32 0.00 -- 76.9 25.0
05/31/2018 22:00 457.32 0.00 -- 78.0 25.0
05/31/2018 21:00 457.32 0.00 -- 80.5 25.0
05/31/2018 20:00 457.32 0.00 -- 83.7 24.5
05/31/2018 19:00 457.32 0.00 -- 85.2 25.0
05/31/2018 18:00 457.33 0.00 -- 86.2 25.8
05/31/2018 17:00 457.33 0.00 -- 86.0 26.3
05/31/2018 16:00 457.32 0.00 -- 84.4 26.0
05/31/2018 15:00 457.31 0.00 -- 85.7 25.5
05/31/2018 14:00 457.33 0.00 -- 84.2 26.0
05/31/2018 13:00 457.34 0.00 -- 81.0 26.5
05/31/2018 12:00 457.33 0.00 -- 77.8 25.3
05/31/2018 11:00 457.32 0.00 -- 76.0 25.0
05/31/2018 10:00 457.32 0.00 -- 70.0 25.0
05/31/2018 09:00 457.32 0.00 -- 60.6 25.0
05/31/2018 08:00 457.32 0.00 -- 52.9 25.0
05/31/2018 07:00 457.32 0.00 -- 52.4 25.0
05/31/2018 06:00 457.32 0.00 -- 52.7 25.0
05/31/2018 05:00 457.32 0.00 -- 53.4 25.0
05/31/2018 04:00 457.32 0.00 -- 54.0 25.8
05/31/2018 03:00 457.33 0.00 -- 55.9 26.0
05/31/2018 02:00 457.33 0.00 -- 57.6 26.0
05/31/2018 01:00 457.33 0.00 -- 59.5 26.0
05/31/2018 00:00 457.33 0.00 0.00 61.4 26.0
05/30/2018 23:00 457.33 0.00 -- 62.3 26.0
05/30/2018 22:00 457.33 0.00 -- 65.8 26.0
05/30/2018 21:00 457.33 0.00 -- 69.2 26.0
05/30/2018 20:00 457.34 0.00 -- 71.2 27.0
05/30/2018 19:00 457.34 0.00 -- 74.4 26.8
05/30/2018 18:00 457.33 0.00 -- 77.1 26.5
05/30/2018 17:00 457.34 0.00 -- 77.9 27.8
05/30/2018 16:00 457.33 0.00 -- 78.5 27.3
05/30/2018 15:00 457.35 0.00 -- 76.9 27.5
05/30/2018 14:00 457.34 0.00 -- 75.2 27.0
05/30/2018 13:00 457.34 0.00 -- 71.6 27.0
05/30/2018 12:00 457.34 0.00 -- 69.4 26.8
05/30/2018 11:00 457.34 0.00 -- 69.6 27.0
05/30/2018 10:00 457.34 0.00 -- 67.3 27.0
05/30/2018 09:00 457.34 0.00 -- 60.1 27.0
05/30/2018 08:00 457.34 0.00 -- 52.5 27.0
05/30/2018 07:00 457.34 0.00 -- 47.5 27.0
05/30/2018 06:00 457.34 0.00 -- 47.9 27.0
05/30/2018 05:00 457.34 0.00 -- 48.9 27.0
05/30/2018 04:00 457.34 0.00 -- 51.2 27.0
05/30/2018 03:00 457.34 0.00 -- 52.7 27.0
05/30/2018 02:00 457.34 0.00 -- 54.4 27.0
05/30/2018 01:00 457.35 0.00 -- 56.6 27.8
05/30/2018 00:00 457.34 0.00 0.00 59.0 27.5
05/29/2018 23:00 457.34 0.00 -- 61.6 27.0
05/29/2018 22:00 457.35 0.00 -- 67.5 27.5
05/29/2018 21:00 457.34 0.00 -- 75.2 27.0
05/29/2018 20:00 457.34 0.00 -- 80.0 27.8
05/29/2018 19:00 457.35 0.00 -- 83.7 27.8
05/29/2018 18:00 457.35 0.00 -- 87.0 28.0
05/29/2018 17:00 457.35 0.00 -- 87.1 27.5
05/29/2018 16:00 457.35 0.00 -- 86.5 27.5
05/29/2018 15:00 457.33 0.00 -- 85.3 27.0
05/29/2018 14:00 457.34 0.00 -- 85.4 27.5
05/29/2018 13:00 457.34 0.00 -- 82.4 27.5
05/29/2018 12:00 457.35 0.00 -- 79.7 28.0
05/29/2018 11:00 457.35 0.00 -- 77.9 28.0
05/29/2018 10:00 457.35 0.00 -- 75.0 27.3
05/29/2018 09:00 457.34 0.00 -- 65.1 27.0
05/29/2018 08:00 457.34 0.00 -- 57.2 27.3
05/29/2018 07:00 457.34 0.00 -- 53.6 27.3
05/29/2018 06:00 457.34 0.00 -- 53.4 27.5
05/29/2018 05:00 457.34 0.00 -- 52.5 27.5
05/29/2018 04:00 457.34 0.00 -- 53.4 27.0
05/29/2018 03:00 457.34 0.00 -- 54.2 27.3
05/29/2018 02:00 457.34 0.00 -- 54.7 27.8
05/29/2018 01:00 457.35 0.00 -- 55.6 27.8
05/29/2018 00:00 457.35 0.00 0.00 57.5 28.0
05/28/2018 23:00 457.35 0.00 -- 60.1 28.3
05/28/2018 22:00 457.34 0.00 -- 60.6 28.0
05/28/2018 21:00 457.35 0.00 -- 62.3 28.0
05/28/2018 20:00 457.36 0.00 -- 63.9 28.5
05/28/2018 19:00 457.36 0.00 -- 65.1 28.8
05/28/2018 18:00 457.36 0.00 -- 64.5 28.8
05/28/2018 17:00 457.35 0.00 -- 63.5 28.5
05/28/2018 16:00 457.36 0.00 -- 62.0 28.5
05/28/2018 15:00 457.35 0.00 -- 62.0 28.5
05/28/2018 14:00 457.35 0.00 -- 60.4 28.3
05/28/2018 13:00 457.35 0.00 -- 60.7 28.0
05/28/2018 12:00 457.35 0.00 -- 58.4 28.0
05/28/2018 11:00 457.35 0.00 -- 56.2 28.0
05/28/2018 10:00 457.35 0.00 -- 54.2 28.0
05/28/2018 09:00 457.35 0.00 -- 51.5 28.3
05/28/2018 08:00 457.35 0.00 -- 51.4 28.0
05/28/2018 07:00 457.35 0.00 -- 50.4 28.5
05/28/2018 06:00 457.36 0.00 -- 50.4 29.0
05/28/2018 05:00 457.36 0.00 -- 50.8 29.0
05/28/2018 04:00 457.36 0.00 -- 50.5 29.0
05/28/2018 03:00 457.36 0.00 -- 51.7 29.0
05/28/2018 02:00 457.36 0.00 -- 51.3 29.0
05/28/2018 01:00 457.36 0.00 -- 51.6 29.0
05/28/2018 00:00 457.36 0.00 0.00 53.1 29.0
05/27/2018 23:00 457.36 0.00 -- 54.2 29.0
05/27/2018 22:00 457.36 0.00 -- 54.6 29.0
05/27/2018 21:00 457.36 0.00 -- 56.6 29.3
05/27/2018 20:00 457.36 0.00 -- 57.1 29.5
05/27/2018 19:00 457.36 0.00 -- 57.8 29.5
05/27/2018 18:00 457.36 0.00 -- 58.5 29.3
05/27/2018 17:00 457.37 0.00 -- 59.5 29.8
05/27/2018 16:00 457.37 0.00 -- 61.5 29.8
05/27/2018 15:00 457.36 0.00 -- 60.2 29.3
05/27/2018 14:00 457.36 0.00 -- 57.8 29.0
05/27/2018 13:00 457.37 0.00 -- 58.7 29.8
05/27/2018 12:00 457.37 0.00 -- 59.3 29.3
05/27/2018 11:00 457.37 0.00 -- 59.5 29.8
05/27/2018 10:00 457.37 0.00 -- 57.3 30.0
05/27/2018 09:00 457.37 0.00 -- 55.7 30.0
05/27/2018 08:00 457.36 0.00 -- 56.1 30.0
05/27/2018 07:00 457.37 0.00 -- 57.3 30.0
05/27/2018 06:00 457.37 0.00 -- 58.6 30.0
05/27/2018 05:00 457.37 0.00 -- 60.0 30.0
05/27/2018 04:00 457.37 0.00 -- 61.1 30.3
05/27/2018 03:00 457.37 0.00 -- 61.8 30.0
05/27/2018 02:00 457.37 0.00 -- 63.4 30.5
05/27/2018 01:00 457.37 0.00 -- 62.8 30.8
05/27/2018 00:00 457.38 0.00 0.00 65.2 30.5
05/26/2018 23:00 457.38 0.00 -- 64.9 31.0
05/26/2018 22:00 457.38 0.00 -- 66.3 31.0
05/26/2018 21:00 457.38 0.00 -- 67.3 31.0
05/26/2018 20:00 457.38 0.00 -- 68.6 31.0
05/26/2018 19:00 457.38 0.00 -- 68.6 31.0
05/26/2018 18:00 457.38 0.01 -- 67.8 30.8
05/26/2018 17:00 457.38 0.00 -- 69.3 30.8
05/26/2018 16:00 457.38 0.02 -- 69.2 31.3
05/26/2018 15:00 457.37 0.00 -- 73.9 30.5
05/26/2018 14:00 457.37 0.00 -- 72.2 30.3
05/26/2018 13:00 457.38 0.00 -- 74.1 30.8
05/26/2018 12:00 457.38 0.00 -- 73.3 31.0
05/26/2018 11:00 457.37 0.00 -- 69.1 30.8
05/26/2018 10:00 457.38 0.00 -- 66.3 30.8
05/26/2018 09:00 457.38 0.00 -- 64.7 31.0
05/26/2018 08:00 457.38 0.00 -- 64.1 31.0
05/26/2018 07:00 457.38 0.00 -- 63.6 30.8
05/26/2018 06:00 457.38 0.00 -- 64.5 31.0
05/26/2018 05:00 457.38 0.00 -- 64.0 31.0
05/26/2018 04:00 457.38 0.00 -- 65.7 31.0
05/26/2018 03:00 457.38 0.00 -- 67.4 31.3
05/26/2018 02:00 457.38 0.00 -- 69.4 32.5
05/26/2018 01:00 457.38 0.00 -- 76.0 31.3
05/26/2018 00:00 457.39 0.00 0.03 76.5 32.0
05/25/2018 23:00 457.39 0.00 -- 78.4 31.8
05/25/2018 22:00 457.37 0.00 -- 78.8 31.5
05/25/2018 21:00 457.38 0.00 -- 79.2 31.3
05/25/2018 20:00 457.39 0.00 -- 80.4 31.3
05/25/2018 19:00 457.38 0.00 -- 81.2 31.8
05/25/2018 18:00 457.39 0.00 -- 82.0 31.5
05/25/2018 17:00 457.40 0.00 -- 82.2 33.5
05/25/2018 16:00 457.40 0.00 -- 82.9 32.5
05/25/2018 15:00 457.39 0.00 -- 83.7 32.8
05/25/2018 14:00 457.41 0.00 -- 83.9 33.3
05/25/2018 13:00 457.39 0.00 -- 80.7 33.0
05/25/2018 12:00 457.39 0.00 -- 79.5 33.3
05/25/2018 11:00 457.40 0.00 -- 78.1 34.0
05/25/2018 10:00 457.40 0.00 -- 75.8 33.0
05/25/2018 09:00 457.41 0.00 -- 73.7 33.5
05/25/2018 08:00 457.39 0.00 -- 54.6 33.3
05/25/2018 07:00 457.41 0.00 -- 51.6 33.3
05/25/2018 06:00 457.41 0.00 -- 49.0 33.5
05/25/2018 05:00 457.39 0.00 -- 48.1 32.8
05/25/2018 04:00 457.40 0.00 -- 49.8 33.0
05/25/2018 03:00 457.40 0.00 -- 51.4 33.0
05/25/2018 02:00 457.40 0.00 -- 51.3 33.0
05/25/2018 01:00 457.40 0.00 -- 53.9 34.0
05/25/2018 00:00 457.40 0.00 0.00 55.2 34.0
05/24/2018 23:00 457.41 0.00 -- 57.8 34.3
05/24/2018 22:00 457.41 0.00 -- 63.0 34.3
05/24/2018 21:00 457.41 0.00 -- 70.4 34.8
05/24/2018 20:00 457.41 0.00 -- 72.8 35.0
05/24/2018 19:00 457.41 0.00 -- 74.0 35.0
05/24/2018 18:00 457.41 0.00 -- 75.0 34.8
05/24/2018 17:00 457.42 0.00 -- 75.2 35.3
05/24/2018 16:00 457.41 0.00 -- 72.8 35.0
05/24/2018 15:00 457.42 0.00 -- 70.0 35.0
05/24/2018 14:00 457.41 0.00 -- 71.1 34.5
05/24/2018 13:00 457.42 0.00 -- 68.2 35.0
05/24/2018 12:00 457.42 0.00 -- 66.5 35.0
05/24/2018 11:00 457.41 0.00 -- 62.6 35.0
05/24/2018 10:00 457.41 0.00 -- 58.9 35.0
05/24/2018 09:00 457.41 0.00 -- 55.4 35.0
05/24/2018 08:00 457.41 0.00 -- 53.7 35.3
05/24/2018 07:00 457.42 0.00 -- 54.1 35.3
05/24/2018 06:00 457.42 0.00 -- 54.7 35.3
05/24/2018 05:00 457.42 0.00 -- 55.4 35.5
05/24/2018 04:00 457.42 0.00 -- 55.1 35.5
05/24/2018 03:00 457.42 0.00 -- 53.5 35.8
05/24/2018 02:00 457.42 0.00 -- 55.5 36.0
05/24/2018 01:00 457.42 0.00 -- 57.6 36.0
05/24/2018 00:00 457.43 0.00 0.00 60.2 36.0
05/23/2018 23:00 457.43 0.00 -- 60.8 36.0
05/23/2018 22:00 457.43 0.00 -- 64.3 36.0
05/23/2018 21:00 457.43 0.00 -- 68.6 36.0
05/23/2018 20:00 457.43 0.00 -- 72.0 36.8
05/23/2018 19:00 457.43 0.00 -- 75.6 36.5
05/23/2018 18:00 457.42 0.00 -- 76.7 36.5
05/23/2018 17:00 457.43 0.00 -- 77.2 37.0
05/23/2018 16:00 -- -- -- 80.7 36.8
05/23/2018 15:00 -- -- -- 79.9 36.3
05/23/2018 14:00 -- -- -- 79.8 37.0
05/23/2018 13:00 -- -- -- 76.9 36.8
05/23/2018 12:00 -- -- -- 74.2 37.0
05/23/2018 11:00 -- -- -- 68.3 36.5
05/23/2018 10:00 -- -- -- 65.4 36.0
05/23/2018 09:00 -- -- -- 60.4 36.5
05/23/2018 08:00 -- -- -- 55.5 37.0
05/23/2018 07:00 -- -- -- 54.2 37.0
05/23/2018 06:00 -- -- -- 54.6 37.0
05/23/2018 05:00 -- -- -- 55.2 37.0
05/23/2018 04:00 -- -- -- 55.3 37.3
05/23/2018 03:00 -- -- -- 55.0 37.5
05/23/2018 02:00 -- -- -- 55.6 37.0
05/23/2018 01:00 -- -- -- 56.3 37.5
05/23/2018 00:00 -- -- 0.00 57.1 37.5